Observation data for Hefner on 12/13/2019      Previous  Date       Current Mesonet Observations  Soil Data  Daily Summary Page  Observations in Plain Language
KHE1 130600Z 22003KT 05/03 A2995 RMK A01 T00480029  RH  087%=      5-min Rain = 0
KHE1 130601Z 23004KT 05/03 A2995 RMK A01 T00490030  RH  087%=      5-min Rain = 0
KHE1 130602Z 23004KT 05/03 A2995 RMK A01 T00510031  RH  087%=      5-min Rain = 0
KHE1 130603Z 25004KT 05/03 A2995 RMK A01 T00520032  RH  087%=      5-min Rain = 0
KHE1 130604Z 26003KT 05/03 A2995 RMK A01 T00530031  RH  086%=      5-min Rain = 0
KHE1 130605Z 26003KT 05/03 A2994 RMK A01 T00520029  RH  085%=      5-min Rain = 0
KHE1 130606Z 26004KT 05/03 A2994 RMK A01 T00510028  RH  085%=      5-min Rain = 0
KHE1 130607Z 25004KT 05/03 A2994 RMK A01 T00500028  RH  086%=      5-min Rain = 0
KHE1 130608Z 26004KT 05/03 A2994 RMK A01 T00490029  RH  087%=      5-min Rain = 0
KHE1 130609Z 27004KT 05/03 A2994 RMK A01 T00490028  RH  086%=      5-min Rain = 0
KHE1 130610Z 27005KT 05/03 A2994 RMK A01 T00470025  RH  086%=      5-min Rain = 0
KHE1 130611Z 27005KT 05/03 A2994 RMK A01 T00450025  RH  087%=      5-min Rain = 0
KHE1 130612Z 28006KT 04/02 A2994 RMK A01 T00430024  RH  087%=      5-min Rain = 0
KHE1 130613Z 27005KT 04/02 A2994 RMK A01 T00420023  RH  088%=      5-min Rain = 0
KHE1 130614Z 27005KT 04/02 A2994 RMK A01 T00400022  RH  088%=      5-min Rain = 0
KHE1 130615Z 27005KT 04/02 A2994 RMK A01 T00390022  RH  089%=      5-min Rain = 0
KHE1 130616Z 27005KT 04/02 A2994 RMK A01 T00380022  RH  089%=      5-min Rain = 0
KHE1 130617Z 27005KT 04/02 A2994 RMK A01 T00380022  RH  089%=      5-min Rain = 0
KHE1 130618Z 27005KT 04/02 A2994 RMK A01 T00370021  RH  090%=      5-min Rain = 0
KHE1 130619Z 26005KT 04/02 A2994 RMK A01 T00370022  RH  090%=      5-min Rain = 0
KHE1 130620Z 26006KT 04/02 A2994 RMK A01 T00370022  RH  090%=      5-min Rain = 0
KHE1 130621Z 27005KT 04/02 A2994 RMK A01 T00370022  RH  090%=      5-min Rain = 0
KHE1 130622Z 28006KT 04/02 A2994 RMK A01 T00370022  RH  090%=      5-min Rain = 0
KHE1 130623Z 28005KT 04/02 A2994 RMK A01 T00360021  RH  090%=      5-min Rain = 0
KHE1 130624Z 28005KT 04/02 A2994 RMK A01 T00360022  RH  090%=      5-min Rain = 0
KHE1 130625Z 28005KT 04/02 A2994 RMK A01 T00360023  RH  091%=      5-min Rain = 0
KHE1 130626Z 28005KT 04/03 A2994 RMK A01 T00380025  RH  091%=      5-min Rain = 0
KHE1 130627Z 28006KT 04/03 A2994 RMK A01 T00400026  RH  090%=      5-min Rain = 0
KHE1 130628Z 28006KT 04/02 A2994 RMK A01 T00400024  RH  090%=      5-min Rain = 0
KHE1 130629Z 28005KT 04/02 A2994 RMK A01 T00400024  RH  089%=      5-min Rain = 0
KHE1 130630Z 27005KT 04/02 A2993 RMK A01 T00400024  RH  090%=      5-min Rain = 0
KHE1 130631Z 27005KT 04/02 A2993 RMK A01 T00390024  RH  090%=      5-min Rain = 0
KHE1 130632Z 27005KT 04/02 A2993 RMK A01 T00390024  RH  090%=      5-min Rain = 0
KHE1 130633Z 27005KT 04/02 A2994 RMK A01 T00390023  RH  090%=      5-min Rain = 0
KHE1 130634Z 27006KT 04/02 A2994 RMK A01 T00380023  RH  090%=      5-min Rain = 0
KHE1 130635Z 27005KT 04/02 A2994 RMK A01 T00380023  RH  090%=      5-min Rain = 0
KHE1 130636Z 27005KT 04/02 A2994 RMK A01 T00380022  RH  090%=      5-min Rain = 0
KHE1 130637Z 27005KT 04/02 A2994 RMK A01 T00370021  RH  089%=      5-min Rain = 0
KHE1 130638Z 28006KT 04/02 A2994 RMK A01 T00360021  RH  090%=      5-min Rain = 0
KHE1 130639Z 28006KT 04/02 A2994 RMK A01 T00360021  RH  090%=      5-min Rain = 0
KHE1 130640Z 28006KT 04/02 A2994 RMK A01 T00360021  RH  090%=      5-min Rain = 0
KHE1 130641Z 28006KT 04/02 A2994 RMK A01 T00360022  RH  090%=      5-min Rain = 0
KHE1 130642Z 28006KT 04/02 A2994 RMK A01 T00360021  RH  090%=      5-min Rain = 0
KHE1 130643Z 29006KT 04/02 A2994 RMK A01 T00360020  RH  090%=      5-min Rain = 0
KHE1 130644Z 29006KT 04/02 A2994 RMK A01 T00350020  RH  090%=      5-min Rain = 0
KHE1 130645Z 29006KT 03/02 A2994 RMK A01 T00340019  RH  090%=      5-min Rain = 0
KHE1 130646Z 29006KT 03/02 A2994 RMK A01 T00330018  RH  090%=      5-min Rain = 0
KHE1 130647Z 29005KT 03/02 A2994 RMK A01 T00330019  RH  091%=      5-min Rain = 0
KHE1 130648Z 29005KT 03/02 A2994 RMK A01 T00330020  RH  091%=      5-min Rain = 0
KHE1 130649Z 30005KT 03/02 A2994 RMK A01 T00330020  RH  091%=      5-min Rain = 0
KHE1 130650Z 30005KT 03/02 A2994 RMK A01 T00330020  RH  091%=      5-min Rain = 0
KHE1 130651Z 29005KT 03/02 A2994 RMK A01 T00340020  RH  091%=      5-min Rain = 0
KHE1 130652Z 29005KT 04/02 A2994 RMK A01 T00350021  RH  091%=      5-min Rain = 0
KHE1 130653Z 29005KT 04/02 A2994 RMK A01 T00350021  RH  090%=      5-min Rain = 0
KHE1 130654Z 29006KT 04/02 A2994 RMK A01 T00350021  RH  090%=      5-min Rain = 0
KHE1 130655Z 29006KT 04/02 A2994 RMK A01 T00350020  RH  090%=      5-min Rain = 0
KHE1 130656Z 29006KT 04/02 A2994 RMK A01 T00350019  RH  090%=      5-min Rain = 0
KHE1 130657Z 29006KT 03/02 A2994 RMK A01 T00340019  RH  090%=      5-min Rain = 0
KHE1 130658Z 29006KT 03/02 A2994 RMK A01 T00330018  RH  090%=      5-min Rain = 0
KHE1 130659Z 29006KT 03/02 A2994 RMK A01 T00330019  RH  091%=      5-min Rain = 0
KHE1 130700Z 29006KT 03/02 A2994 RMK A01 T00330019  RH  091%=      5-min Rain = 0
KHE1 130701Z 29006KT 03/02 A2994 RMK A01 T00330020  RH  091%=      5-min Rain = 0
KHE1 130702Z 29006KT 03/02 A2994 RMK A01 T00330020  RH  091%=      5-min Rain = 0
KHE1 130703Z 29006KT 03/02 A2994 RMK A01 T00340020  RH  091%=      5-min Rain = 0
KHE1 130704Z 29006KT 03/02 A2994 RMK A01 T00340020  RH  091%=      5-min Rain = 0
KHE1 130705Z 29006KT 03/02 A2993 RMK A01 T00340020  RH  090%=      5-min Rain = 0
KHE1 130706Z 29006KT 03/02 A2993 RMK A01 T00340020  RH  091%=      5-min Rain = 0
KHE1 130707Z 29006KT 04/02 A2993 RMK A01 T00350020  RH  091%=      5-min Rain = 0
KHE1 130708Z 30006KT 04/02 A2993 RMK A01 T00350020  RH  090%=      5-min Rain = 0
KHE1 130709Z 30005KT 04/02 A2993 RMK A01 T00350021  RH  090%=      5-min Rain = 0
KHE1 130710Z 30005KT 03/02 A2993 RMK A01 T00340021  RH  091%=      5-min Rain = 0
KHE1 130711Z 30005KT 04/02 A2993 RMK A01 T00350021  RH  091%=      5-min Rain = 0
KHE1 130712Z 30005KT 03/02 A2993 RMK A01 T00340020  RH  090%=      5-min Rain = 0
KHE1 130713Z 30005KT 03/02 A2993 RMK A01 T00340019  RH  090%=      5-min Rain = 0
KHE1 130714Z 29005KT 03/02 A2993 RMK A01 T00330019  RH  090%=      5-min Rain = 0
KHE1 130715Z 29005KT 03/02 A2993 RMK A01 T00330019  RH  091%=      5-min Rain = 0
KHE1 130716Z 29005KT 03/02 A2993 RMK A01 T00330019  RH  091%=      5-min Rain = 0
KHE1 130717Z 29005KT 03/02 A2993 RMK A01 T00330020  RH  091%=      5-min Rain = 0
KHE1 130718Z 29004KT 03/02 A2993 RMK A01 T00330020  RH  092%=      5-min Rain = 0
KHE1 130719Z 29004KT 03/02 A2993 RMK A01 T00340022  RH  092%=      5-min Rain = 0
KHE1 130720Z 29004KT 04/02 A2993 RMK A01 T00350023  RH  092%=      5-min Rain = 0
KHE1 130721Z 29004KT 04/02 A2993 RMK A01 T00360024  RH  092%=      5-min Rain = 0
KHE1 130722Z 29004KT 04/03 A2992 RMK A01 T00370025  RH  092%=      5-min Rain = 0
KHE1 130723Z 29004KT 04/03 A2992 RMK A01 T00380026  RH  092%=      5-min Rain = 0
KHE1 130724Z 28004KT 04/03 A2992 RMK A01 T00390027  RH  092%=      5-min Rain = 0
KHE1 130725Z 28004KT 04/03 A2992 RMK A01 T00400026  RH  091%=      5-min Rain = 0
KHE1 130726Z 28004KT 04/03 A2992 RMK A01 T00400025  RH  090%=      5-min Rain = 0
KHE1 130727Z 28004KT 04/03 A2992 RMK A01 T00400025  RH  090%=      5-min Rain = 0
KHE1 130728Z 28004KT 04/03 A2992 RMK A01 T00400025  RH  090%=      5-min Rain = 0
KHE1 130729Z 28003KT 04/03 A2992 RMK A01 T00400025  RH  090%=      5-min Rain = 0
KHE1 130730Z 27004KT 04/03 A2992 RMK A01 T00400026  RH  090%=      5-min Rain = 0
KHE1 130731Z 27004KT 04/03 A2992 RMK A01 T00410025  RH  090%=      5-min Rain = 0
KHE1 130732Z 27004KT 04/03 A2992 RMK A01 T00410025  RH  089%=      5-min Rain = 0
KHE1 130733Z 27004KT 04/03 A2992 RMK A01 T00410025  RH  089%=      5-min Rain = 0
KHE1 130734Z 28004KT 04/03 A2991 RMK A01 T00410026  RH  090%=      5-min Rain = 0
KHE1 130735Z 28004KT 04/03 A2991 RMK A01 T00410025  RH  089%=      5-min Rain = 0
KHE1 130736Z 28004KT 04/03 A2991 RMK A01 T00410025  RH  089%=      5-min Rain = 0
KHE1 130737Z 29004KT 04/03 A2991 RMK A01 T00410025  RH  089%=      5-min Rain = 0
KHE1 130738Z 29004KT 04/03 A2991 RMK A01 T00410026  RH  090%=      5-min Rain = 0
KHE1 130739Z 29004KT 04/03 A2991 RMK A01 T00410025  RH  090%=      5-min Rain = 0
KHE1 130740Z 30004KT 04/03 A2991 RMK A01 T00400025  RH  090%=      5-min Rain = 0
KHE1 130741Z 31005KT 04/02 A2991 RMK A01 T00400024  RH  089%=      5-min Rain = 0
KHE1 130742Z 32005KT 04/02 A2991 RMK A01 T00390023  RH  090%=      5-min Rain = 0
KHE1 130743Z 32005KT 04/02 A2991 RMK A01 T00380023  RH  090%=      5-min Rain = 0
KHE1 130744Z 33005KT 04/02 A2991 RMK A01 T00380023  RH  090%=      5-min Rain = 0
KHE1 130745Z 33005KT 04/02 A2992 RMK A01 T00370021  RH  090%=      5-min Rain = 0
KHE1 130746Z 32004KT 04/02 A2992 RMK A01 T00350020  RH  090%=      5-min Rain = 0
KHE1 130747Z 32004KT 04/02 A2992 RMK A01 T00350020  RH  090%=      5-min Rain = 0
KHE1 130748Z 31004KT 03/02 A2992 RMK A01 T00340019  RH  090%=      5-min Rain = 0
KHE1 130749Z 31003KT 03/02 A2992 RMK A01 T00340020  RH  091%=      5-min Rain = 0
KHE1 130750Z 30003KT 03/02 A2992 RMK A01 T00340020  RH  091%=      5-min Rain = 0
KHE1 130751Z 30003KT 03/02 A2992 RMK A01 T00330019  RH  090%=      5-min Rain = 0
KHE1 130752Z 30003KT 03/02 A2992 RMK A01 T00320018  RH  090%=      5-min Rain = 0
KHE1 130753Z 31003KT 03/02 A2992 RMK A01 T00310017  RH  090%=      5-min Rain = 0
KHE1 130754Z 32003KT 03/02 A2992 RMK A01 T00300017  RH  091%=      5-min Rain = 0
KHE1 130755Z 32003KT 03/02 A2992 RMK A01 T00300017  RH  091%=      5-min Rain = 0
KHE1 130756Z 32003KT 03/02 A2992 RMK A01 T00300017  RH  091%=      5-min Rain = 0
KHE1 130757Z 33004KT 03/02 A2992 RMK A01 T00300017  RH  091%=      5-min Rain = 0
KHE1 130758Z 33004KT 03/02 A2992 RMK A01 T00300017  RH  091%=      5-min Rain = 0
KHE1 130759Z 33004KT 03/02 A2992 RMK A01 T00300017  RH  092%=      5-min Rain = 0
KHE1 130800Z 32004KT 03/02 A2992 RMK A01 T00300018  RH  092%=      5-min Rain = 0
KHE1 130801Z 32003KT 03/02 A2992 RMK A01 T00300018  RH  092%=      5-min Rain = 0
KHE1 130802Z 31003KT 03/02 A2992 RMK A01 T00300017  RH  091%=      5-min Rain = 0
KHE1 130803Z 31003KT 03/02 A2992 RMK A01 T00300017  RH  091%=      5-min Rain = 0
KHE1 130804Z 31003KT 03/02 A2992 RMK A01 T00300018  RH  092%=      5-min Rain = 0
KHE1 130805Z 31003KT 03/02 A2992 RMK A01 T00300018  RH  092%=      5-min Rain = 0
KHE1 130806Z 31003KT 03/02 A2992 RMK A01 T00300017  RH  092%=      5-min Rain = 0
KHE1 130807Z 31003KT 03/02 A2992 RMK A01 T00290017  RH  092%=      5-min Rain = 0
KHE1 130808Z 31003KT 03/02 A2992 RMK A01 T00290017  RH  092%=      5-min Rain = 0
KHE1 130809Z 32004KT 03/02 A2992 RMK A01 T00290018  RH  092%=      5-min Rain = 0
KHE1 130810Z 33004KT 03/02 A2992 RMK A01 T00290018  RH  093%=      5-min Rain = 0
KHE1 130811Z 33004KT 03/02 A2992 RMK A01 T00290019  RH  093%=      5-min Rain = 0
KHE1 130812Z 33003KT 03/02 A2992 RMK A01 T00300020  RH  093%=      5-min Rain = 0
KHE1 130813Z 33003KT 03/02 A2992 RMK A01 T00300020  RH  093%=      5-min Rain = 0
KHE1 130814Z 33003KT 03/02 A2992 RMK A01 T00300021  RH  093%=      5-min Rain = 0
KHE1 130815Z 33003KT 03/02 A2992 RMK A01 T00310021  RH  093%=      5-min Rain = 0
KHE1 130816Z 33003KT 03/02 A2992 RMK A01 T00310022  RH  094%=      5-min Rain = 0
KHE1 130817Z 33003KT 03/02 A2992 RMK A01 T00320024  RH  094%=      5-min Rain = 0
KHE1 130818Z 34003KT 03/02 A2992 RMK A01 T00330024  RH  094%=      5-min Rain = 0
KHE1 130819Z 34003KT 03/03 A2992 RMK A01 T00330025  RH  094%=      5-min Rain = 0
KHE1 130820Z 34003KT 03/03 A2992 RMK A01 T00340026  RH  094%=      5-min Rain = 0
KHE1 130821Z 34003KT 04/03 A2992 RMK A01 T00350027  RH  094%=      5-min Rain = 0
KHE1 130822Z 34003KT 04/03 A2992 RMK A01 T00360027  RH  094%=      5-min Rain = 0
KHE1 130823Z 34003KT 04/03 A2992 RMK A01 T00360027  RH  094%=      5-min Rain = 0
KHE1 130824Z 34003KT 04/03 A2992 RMK A01 T00370027  RH  093%=      5-min Rain = 0
KHE1 130825Z 34003KT 04/03 A2992 RMK A01 T00370027  RH  093%=      5-min Rain = 0
KHE1 130826Z 34004KT 04/03 A2992 RMK A01 T00370026  RH  093%=      5-min Rain = 0
KHE1 130827Z 34004KT 04/03 A2992 RMK A01 T00370025  RH  092%=      5-min Rain = 0
KHE1 130828Z 34004KT 04/03 A2992 RMK A01 T00370025  RH  092%=      5-min Rain = 0
KHE1 130829Z 34004KT 04/03 A2992 RMK A01 T00360025  RH  092%=      5-min Rain = 0
KHE1 130830Z 34004KT 04/02 A2992 RMK A01 T00360024  RH  092%=      5-min Rain = 0
KHE1 130831Z 34004KT 04/02 A2992 RMK A01 T00350023  RH  092%=      5-min Rain = 0
KHE1 130832Z 33003KT 03/02 A2992 RMK A01 T00340023  RH  092%=      5-min Rain = 0
KHE1 130833Z 32003KT 03/02 A2992 RMK A01 T00340022  RH  092%=      5-min Rain = 0
KHE1 130834Z 32003KT 03/02 A2992 RMK A01 T00330022  RH  092%=      5-min Rain = 0
KHE1 130835Z 32003KT 03/02 A2991 RMK A01 T00330021  RH  092%=      5-min Rain = 0
KHE1 130836Z 32003KT 03/02 A2991 RMK A01 T00320020  RH  092%=      5-min Rain = 0
KHE1 130837Z 32003KT 03/02 A2991 RMK A01 T00310020  RH  092%=      5-min Rain = 0
KHE1 130838Z 31003KT 03/02 A2992 RMK A01 T00310020  RH  092%=      5-min Rain = 0
KHE1 130839Z 30003KT 03/02 A2992 RMK A01 T00300020  RH  093%=      5-min Rain = 0
KHE1 130840Z 29002KT 03/02 A2992 RMK A01 T00300020  RH  093%=      5-min Rain = 0
KHE1 130841Z 29002KT 03/02 A2992 RMK A01 T00300019  RH  093%=      5-min Rain = 0
KHE1 130842Z 28002KT 03/02 A2992 RMK A01 T00290019  RH  093%=      5-min Rain = 0
KHE1 130843Z 27002KT 03/02 A2992 RMK A01 T00290018  RH  093%=      5-min Rain = 0
KHE1 130844Z 26002KT 03/02 A2992 RMK A01 T00280017  RH  093%=      5-min Rain = 0
KHE1 130845Z 26002KT 03/02 A2992 RMK A01 T00280017  RH  093%=      5-min Rain = 0
KHE1 130846Z 26002KT 03/02 A2991 RMK A01 T00270017  RH  093%=      5-min Rain = 0
KHE1 130847Z 28003KT 03/02 A2991 RMK A01 T00270018  RH  094%=      5-min Rain = 0
KHE1 130848Z 28003KT 03/02 A2991 RMK A01 T00280020  RH  094%=      5-min Rain = 0
KHE1 130849Z 28003KT 03/02 A2991 RMK A01 T00290020  RH  094%=      5-min Rain = 0
KHE1 130850Z 28003KT 03/02 A2991 RMK A01 T00290019  RH  094%=      5-min Rain = 0
KHE1 130851Z 28003KT 03/02 A2991 RMK A01 T00280018  RH  093%=      5-min Rain = 0
KHE1 130852Z 27003KT 03/02 A2991 RMK A01 T00280018  RH  093%=      5-min Rain = 0
KHE1 130853Z 27003KT 03/02 A2991 RMK A01 T00270017  RH  093%=      5-min Rain = 0
KHE1 130854Z 26003KT 03/02 A2991 RMK A01 T00270017  RH  093%=      5-min Rain = 0
KHE1 130855Z 26003KT 03/02 A2991 RMK A01 T00260017  RH  094%=      5-min Rain = 0
KHE1 130856Z 27003KT 03/02 A2991 RMK A01 T00260017  RH  094%=      5-min Rain = 0
KHE1 130857Z 27003KT 03/02 A2991 RMK A01 T00260018  RH  094%=      5-min Rain = 0
KHE1 130858Z 27003KT 03/02 A2991 RMK A01 T00260018  RH  095%=      5-min Rain = 0
KHE1 130859Z 28004KT 03/02 A2991 RMK A01 T00260018  RH  095%=      5-min Rain = 0
KHE1 130900Z 28003KT 03/02 A2991 RMK A01 T00260018  RH  094%=      5-min Rain = 0
KHE1 130901Z 26004KT 03/02 A2991 RMK A01 T00260018  RH  094%=      5-min Rain = 0
KHE1 130902Z 26003KT 03/02 A2991 RMK A01 T00260018  RH  095%=      5-min Rain = 0
KHE1 130903Z 25003KT 03/02 A2991 RMK A01 T00260018  RH  095%=      5-min Rain = 0
KHE1 130904Z 24005KT 03/02 A2991 RMK A01 T00260018  RH  094%=      5-min Rain = 0
KHE1 130905Z 24005KT 03/02 A2991 RMK A01 T00260017  RH  094%=      5-min Rain = 0
KHE1 130906Z 23003KT 03/02 A299 RMK A01 T00250016  RH  094%=      5-min Rain = 0
KHE1 130907Z 24004KT 02/02 A2991 RMK A01 T00240016  RH  094%=      5-min Rain = 0
KHE1 130908Z 24005KT 02/02 A2991 RMK A01 T00230015  RH  094%=      5-min Rain = 0
KHE1 130909Z 24004KT 02/02 A2991 RMK A01 T00230015  RH  094%=      5-min Rain = 0
KHE1 130910Z 24004KT 02/01 A299 RMK A01 T00220014  RH  094%=      5-min Rain = 0
KHE1 130911Z 24004KT 02/01 A2991 RMK A01 T00220014  RH  094%=      5-min Rain = 0
KHE1 130912Z 22005KT 02/01 A2991 RMK A01 T00210013  RH  094%=      5-min Rain = 0
KHE1 130913Z 20005KT 02/01 A2991 RMK A01 T00200011  RH  094%=      5-min Rain = 0
KHE1 130914Z 20005KT 02/01 A2991 RMK A01 T00180009  RH  094%=      5-min Rain = 0
KHE1 130915Z 22005KT 02/01 A2991 RMK A01 T00180009  RH  094%=      5-min Rain = 0
KHE1 130916Z 23004KT 02/01 A2991 RMK A01 T00170009  RH  094%=      5-min Rain = 0
KHE1 130917Z 25004KT 02/01 A2991 RMK A01 T00170010  RH  095%=      5-min Rain = 0
KHE1 130918Z 26004KT 02/01 A2991 RMK A01 T00170010  RH  095%=      5-min Rain = 0
KHE1 130919Z 26004KT 02/01 A2991 RMK A01 T00180011  RH  095%=      5-min Rain = 0
KHE1 130920Z 24004KT 02/01 A2991 RMK A01 T00180011  RH  095%=      5-min Rain = 0
KHE1 130921Z 23004KT 02/01 A2991 RMK A01 T00170009  RH  094%=      5-min Rain = 0
KHE1 130922Z 22005KT 02/01 A2991 RMK A01 T00160008  RH  094%=      5-min Rain = 0
KHE1 130923Z 21005KT 02/01 A2991 RMK A01 T00150006  RH  094%=      5-min Rain = 0
KHE1 130924Z 22004KT 01/01 A2991 RMK A01 T00140006  RH  094%=      5-min Rain = 0
KHE1 130925Z 22005KT 01/01 A2991 RMK A01 T00140006  RH  095%=      5-min Rain = 0
KHE1 130926Z 22006KT 01/01 A2991 RMK A01 T00140007  RH  095%=      5-min Rain = 0
KHE1 130927Z 23005KT 01/01 A2991 RMK A01 T00140006  RH  095%=      5-min Rain = 0
KHE1 130928Z 23005KT 01/01 A299 RMK A01 T00140007  RH  095%=      5-min Rain = 0
KHE1 130929Z 24006KT 01/01 A299 RMK A01 T00140007  RH  095%=      5-min Rain = 0
KHE1 130930Z 24006KT 01/01 A2991 RMK A01 T00140006  RH  095%=      5-min Rain = 0
KHE1 130931Z 24006KT 01/01 A2991 RMK A01 T00140006  RH  094%=      5-min Rain = 0
KHE1 130932Z 25006KT 01/01 A2991 RMK A01 T00130005  RH  094%=      5-min Rain = 0
KHE1 130933Z 25006KT 01/00 A2991 RMK A01 T00130004  RH  094%=      5-min Rain = 0
KHE1 130934Z 25006KT 01/00 A2991 RMK A01 T00120003  RH  094%=      5-min Rain = 0
KHE1 130935Z 25007KT 01/00 A2991 RMK A01 T00110001  RH  094%=      5-min Rain = 0
KHE1 130936Z 25007KT 01/00 A2991 RMK A01 T00100001  RH  094%=      5-min Rain = 0
KHE1 130937Z 25007KT 01/00 A2991 RMK A01 T00100001  RH  094%=      5-min Rain = 0
KHE1 130938Z 25007KT 01/00 A2991 RMK A01 T00100002  RH  095%=      5-min Rain = 0
KHE1 130939Z 26007KT 01/00 A2991 RMK A01 T00100003  RH  095%=      5-min Rain = 0
KHE1 130940Z 26007KT 01/00 A2991 RMK A01 T00110004  RH  095%=      5-min Rain = 0
KHE1 130941Z 26006KT 01/00 A2991 RMK A01 T00110003  RH  095%=      5-min Rain = 0
KHE1 130942Z 26006KT 01/00 A2991 RMK A01 T00110003  RH  095%=      5-min Rain = 0
KHE1 130943Z 26006KT 01/00 A2991 RMK A01 T00110003  RH  095%=      5-min Rain = 0
KHE1 130944Z 26006KT 01/00 A2991 RMK A01 T00110003  RH  095%=      5-min Rain = 0
KHE1 130945Z 27006KT 01/00 A2991 RMK A01 T00110003  RH  095%=      5-min Rain = 0
KHE1 130946Z 27006KT 01/00 A2991 RMK A01 T00110003  RH  095%=      5-min Rain = 0
KHE1 130947Z 27006KT 01/00 A2991 RMK A01 T00110003  RH  095%=      5-min Rain = 0
KHE1 130948Z 27005KT 01/00 A2991 RMK A01 T00110004  RH  095%=      5-min Rain = 0
KHE1 130949Z 27006KT 01/00 A2991 RMK A01 T00110004  RH  095%=      5-min Rain = 0
KHE1 130950Z 27006KT 01/00 A2991 RMK A01 T00120004  RH  095%=      5-min Rain = 0
KHE1 130951Z 27007KT 01/00 A2991 RMK A01 T00120004  RH  095%=      5-min Rain = 0
KHE1 130952Z 28008KT 01/00 A2991 RMK A01 T00120004  RH  095%=      5-min Rain = 0
KHE1 130953Z 28007KT 01/00 A2991 RMK A01 T00120004  RH  095%=      5-min Rain = 0
KHE1 130954Z 28007KT 01/00 A2991 RMK A01 T00120004  RH  095%=      5-min Rain = 0
KHE1 130955Z 27007KT 01/01 A2991 RMK A01 T00120005  RH  095%=      5-min Rain = 0
KHE1 130956Z 28007KT 01/00 A2991 RMK A01 T00120004  RH  095%=      5-min Rain = 0
KHE1 130957Z 28007KT 01/01 A2991 RMK A01 T00120005  RH  095%=      5-min Rain = 0
KHE1 130958Z 28007KT 01/01 A2991 RMK A01 T00120005  RH  095%=      5-min Rain = 0
KHE1 130959Z 27007KT 01/01 A2991 RMK A01 T00130005  RH  095%=      5-min Rain = 0
KHE1 131000Z 27007KT 01/01 A2991 RMK A01 T00130005  RH  095%=      5-min Rain = 0
KHE1 131001Z 28008KT 01/01 A2991 RMK A01 T00130005  RH  095%=      5-min Rain = 0
KHE1 131002Z 28008KT 01/01 A299 RMK A01 T00130005  RH  095%=      5-min Rain = 0
KHE1 131003Z 28008KT 01/01 A299 RMK A01 T00130005  RH  095%=      5-min Rain = 0
KHE1 131004Z 28008KT 01/01 A299 RMK A01 T00130005  RH  094%=      5-min Rain = 0
KHE1 131005Z 28007KT 01/00 A299 RMK A01 T00130004  RH  094%=      5-min Rain = 0
KHE1 131006Z 28007KT 01/00 A299 RMK A01 T00120004  RH  094%=      5-min Rain = 0
KHE1 131007Z 28007KT 01/00 A299 RMK A01 T00120004  RH  094%=      5-min Rain = 0
KHE1 131008Z 28007KT 01/00 A299 RMK A01 T00120004  RH  094%=      5-min Rain = 0
KHE1 131009Z 28007KT 01/00 A299 RMK A01 T00120004  RH  094%=      5-min Rain = 0
KHE1 131010Z 28007KT 01/00 A299 RMK A01 T00120004  RH  094%=      5-min Rain = 0
KHE1 131011Z 29007KT 01/00 A299 RMK A01 T00110003  RH  094%=      5-min Rain = 0
KHE1 131012Z 29007KT 01/00 A299 RMK A01 T00110003  RH  094%=      5-min Rain = 0
KHE1 131013Z 29006KT 01/00 A299 RMK A01 T00100002  RH  094%=      5-min Rain = 0
KHE1 131014Z 29006KT 01/00 A299 RMK A01 T00100002  RH  094%=      5-min Rain = 0
KHE1 131015Z 29006KT 01/00 A299 RMK A01 T00100002  RH  094%=      5-min Rain = 0
KHE1 131016Z 29006KT 01/00 A299 RMK A01 T00100002  RH  094%=      5-min Rain = 0
KHE1 131017Z 29006KT 01/00 A299 RMK A01 T00100002  RH  094%=      5-min Rain = 0
KHE1 131018Z 29006KT 01/00 A2989 RMK A01 T00100002  RH  094%=      5-min Rain = 0
KHE1 131019Z 29005KT 01/00 A2989 RMK A01 T00100002  RH  095%=      5-min Rain = 0
KHE1 131020Z 29005KT 01/00 A2989 RMK A01 T00100002  RH  095%=      5-min Rain = 0
KHE1 131021Z 29005KT 01/00 A299 RMK A01 T00100002  RH  095%=      5-min Rain = 0
KHE1 131022Z 30005KT 01/00 A299 RMK A01 T00100002  RH  095%=      5-min Rain = 0
KHE1 131023Z 29005KT 01/00 A299 RMK A01 T00090002  RH  095%=      5-min Rain = 0
KHE1 131024Z 29005KT 01/00 A299 RMK A01 T00090002  RH  095%=      5-min Rain = 0
KHE1 131025Z 29005KT 01/00 A299 RMK A01 T00090002  RH  095%=      5-min Rain = 0
KHE1 131026Z 29005KT 01/00 A299 RMK A01 T00090002  RH  095%=      5-min Rain = 0
KHE1 131027Z 29005KT 01/00 A299 RMK A01 T00090002  RH  095%=      5-min Rain = 0
KHE1 131028Z 29006KT 01/00 A299 RMK A01 T00090001  RH  095%=      5-min Rain = 0
KHE1 131029Z 29005KT 01/00 A299 RMK A01 T00080001  RH  095%=      5-min Rain = 0
KHE1 131030Z 29005KT 01/00 A299 RMK A01 T00080000  RH  095%=      5-min Rain = 0
KHE1 131031Z 28005KT 01/00 A299 RMK A01 T000800-0  RH  095%=      5-min Rain = 0
KHE1 131032Z 28006KT 01/00 A299 RMK A01 T000700-0  RH  095%=      5-min Rain = 0
KHE1 131033Z 28006KT 01/00 A299 RMK A01 T000700-0  RH  095%=      5-min Rain = 0
KHE1 131034Z 28005KT 01/00 A2989 RMK A01 T000700-0  RH  095%=      5-min Rain = 0
KHE1 131035Z 29005KT 01/00 A2989 RMK A01 T00070000  RH  095%=      5-min Rain = 0
KHE1 131036Z 29005KT 01/00 A2989 RMK A01 T00070000  RH  095%=      5-min Rain = 0
KHE1 131037Z 29006KT 01/00 A2989 RMK A01 T00070001  RH  095%=      5-min Rain = 0
KHE1 131038Z 29006KT 01/00 A2989 RMK A01 T00070000  RH  095%=      5-min Rain = 0
KHE1 131039Z 29006KT 01/00 A2989 RMK A01 T00070000  RH  095%=      5-min Rain = 0
KHE1 131040Z 29006KT 01/00 A2989 RMK A01 T00070000  RH  095%=      5-min Rain = 0
KHE1 131041Z 29005KT 01/00 A2989 RMK A01 T00070000  RH  095%=      5-min Rain = 0
KHE1 131042Z 29005KT 01/00 A2989 RMK A01 T00070000  RH  095%=      5-min Rain = 0
KHE1 131043Z 30006KT 01/00 A2989 RMK A01 T000700-0  RH  095%=      5-min Rain = 0
KHE1 131044Z 29006KT 01/M00 A2989 RMK A01 T00061001  RH  095%=      5-min Rain = 0
KHE1 131045Z 30006KT 01/M00 A2989 RMK A01 T00061002  RH  095%=      5-min Rain = 0
KHE1 131046Z 30005KT 01/M00 A2989 RMK A01 T00061001  RH  095%=      5-min Rain = 0
KHE1 131047Z 29005KT 01/M00 A2989 RMK A01 T00061001  RH  095%=      5-min Rain = 0
KHE1 131048Z 29006KT 01/M00 A2989 RMK A01 T00061001  RH  095%=      5-min Rain = 0
KHE1 131049Z 29006KT 01/M00 A2989 RMK A01 T00061001  RH  096%=      5-min Rain = 0
KHE1 131050Z 29005KT 01/00 A2989 RMK A01 T00060000  RH  096%=      5-min Rain = 0
KHE1 131051Z 29005KT 01/00 A2989 RMK A01 T00070001  RH  096%=      5-min Rain = 0
KHE1 131052Z 29005KT 01/00 A2989 RMK A01 T00070001  RH  096%=      5-min Rain = 0
KHE1 131053Z 28005KT 01/00 A2989 RMK A01 T00070001  RH  096%=      5-min Rain = 0
KHE1 131054Z 28005KT 01/00 A2989 RMK A01 T000700-0  RH  095%=      5-min Rain = 0
KHE1 131055Z 28006KT 01/00 A2989 RMK A01 T000600-0  RH  095%=      5-min Rain = 0
KHE1 131056Z 28006KT 01/00 A2989 RMK A01 T000600-0  RH  096%=      5-min Rain = 0
KHE1 131057Z 29006KT 01/00 A2989 RMK A01 T000600-0  RH  096%=      5-min Rain = 0
KHE1 131058Z 29006KT 01/00 A2989 RMK A01 T000600-0  RH  096%=      5-min Rain = 0
KHE1 131059Z 29006KT 01/00 A2989 RMK A01 T000600-0  RH  096%=      5-min Rain = 0
KHE1 131100Z 28005KT 01/M00 A2989 RMK A01 T00061001  RH  096%=      5-min Rain = 0
KHE1 131101Z 28006KT 01/M00 A2989 RMK A01 T00061001  RH  095%=      5-min Rain = 0
KHE1 131102Z 29006KT 01/M00 A2989 RMK A01 T00051001  RH  095%=      5-min Rain = 0
KHE1 131103Z 29006KT 01/M00 A2989 RMK A01 T00051001  RH  096%=      5-min Rain = 0
KHE1 131104Z 29006KT 01/M00 A2989 RMK A01 T00051001  RH  096%=      5-min Rain = 0
KHE1 131105Z 29006KT 01/M00 A2989 RMK A01 T00051001  RH  096%=      5-min Rain = 0
KHE1 131106Z 29006KT 01/M00 A2989 RMK A01 T00051001  RH  096%=      5-min Rain = 0
KHE1 131107Z 29006KT 01/M00 A2989 RMK A01 T00051001  RH  096%=      5-min Rain = 0
KHE1 131108Z 29006KT 01/M00 A2989 RMK A01 T00051001  RH  096%=      5-min Rain = 0
KHE1 131109Z 29006KT 01/M00 A2989 RMK A01 T00051001  RH  096%=      5-min Rain = 0
KHE1 131110Z 29006KT 01/M00 A2989 RMK A01 T00051001  RH  096%=      5-min Rain = 0
KHE1 131111Z 29006KT 01/M00 A2989 RMK A01 T00051001  RH  096%=      5-min Rain = 0
KHE1 131112Z 29006KT 01/M00 A2989 RMK A01 T00051001  RH  096%=      5-min Rain = 0
KHE1 131113Z 29007KT 01/M00 A2989 RMK A01 T00051001  RH  096%=      5-min Rain = 0
KHE1 131114Z 29007KT 01/00 A2989 RMK A01 T000500-0  RH  096%=      5-min Rain = 0
KHE1 131115Z 29006KT 01/M00 A2989 RMK A01 T00051001  RH  096%=      5-min Rain = 0
KHE1 131116Z 29006KT 01/M00 A2989 RMK A01 T00051001  RH  096%=      5-min Rain = 0
KHE1 131117Z 29006KT 01/M00 A2989 RMK A01 T00051001  RH  096%=      5-min Rain = 0
KHE1 131118Z 29006KT 01/M00 A2989 RMK A01 T00051001  RH  096%=      5-min Rain = 0
KHE1 131119Z 29006KT 01/M00 A2989 RMK A01 T00051001  RH  096%=      5-min Rain = 0
KHE1 131120Z 28006KT 01/M00 A2989 RMK A01 T00051001  RH  096%=      5-min Rain = 0
KHE1 131121Z 28006KT 01/M00 A2989 RMK A01 T00051001  RH  096%=      5-min Rain = 0
KHE1 131122Z 28005KT 01/M00 A2989 RMK A01 T00051001  RH  096%=      5-min Rain = 0
KHE1 131123Z 28005KT 00/M00 A2989 RMK A01 T00041002  RH  096%=      5-min Rain = 0
KHE1 131124Z 28006KT 00/M00 A2989 RMK A01 T00041002  RH  096%=      5-min Rain = 0
KHE1 131125Z 28006KT 00/M00 A2989 RMK A01 T00041002  RH  096%=      5-min Rain = 0
KHE1 131126Z 27006KT 00/M00 A2989 RMK A01 T00041003  RH  096%=      5-min Rain = 0
KHE1 131127Z 27006KT 00/M00 A2989 RMK A01 T00031003  RH  096%=      5-min Rain = 0
KHE1 131128Z 28007KT 00/M00 A2989 RMK A01 T00041002  RH  096%=      5-min Rain = 0
KHE1 131129Z 28007KT 00/M00 A2989 RMK A01 T00031002  RH  096%=      5-min Rain = 0
KHE1 131130Z 28007KT 00/M00 A2989 RMK A01 T00041002  RH  096%=      5-min Rain = 0
KHE1 131131Z 28007KT 00/M00 A2989 RMK A01 T00041001  RH  096%=      5-min Rain = 0
KHE1 131132Z 28007KT 01/M00 A2989 RMK A01 T00051001  RH  096%=      5-min Rain = 0
KHE1 131133Z 28008KT 00/M00 A2989 RMK A01 T00041002  RH  096%=      5-min Rain = 0
KHE1 131134Z 29008KT 00/M00 A2989 RMK A01 T00041002  RH  096%=      5-min Rain = 0
KHE1 131135Z 29007KT 00/M00 A2989 RMK A01 T00041002  RH  096%=      5-min Rain = 0
KHE1 131136Z 29007KT 00/M00 A2989 RMK A01 T00041002  RH  096%=      5-min Rain = 0
KHE1 131137Z 29007KT 00/M00 A2989 RMK A01 T00041002  RH  096%=      5-min Rain = 0
KHE1 131138Z 30007KT 01/M00 A2989 RMK A01 T00051001  RH  096%=      5-min Rain = 0
KHE1 131139Z 30007KT 00/M00 A2989 RMK A01 T00041002  RH  096%=      5-min Rain = 0
KHE1 131140Z 29007KT 01/M00 A2989 RMK A01 T00051002  RH  096%=      5-min Rain = 0
KHE1 131141Z 29007KT 01/M00 A2989 RMK A01 T00051002  RH  096%=      5-min Rain = 0
KHE1 131142Z 29007KT 01/M00 A2989 RMK A01 T00051001  RH  096%=      5-min Rain = 0
KHE1 131143Z 30007KT 01/M00 A2989 RMK A01 T00051001  RH  096%=      5-min Rain = 0
KHE1 131144Z 30007KT 01/00 A2989 RMK A01 T00060000  RH  096%=      5-min Rain = 0
KHE1 131145Z 30007KT 01/00 A2989 RMK A01 T00070001  RH  096%=      5-min Rain = 0
KHE1 131146Z 30007KT 01/00 A2989 RMK A01 T00080002  RH  096%=      5-min Rain = 0
KHE1 131147Z 30007KT 01/00 A2989 RMK A01 T00090003  RH  096%=      5-min Rain = 0
KHE1 131148Z 30007KT 01/00 A2989 RMK A01 T00090004  RH  096%=      5-min Rain = 0
KHE1 131149Z 30007KT 01/00 A2989 RMK A01 T00090003  RH  096%=      5-min Rain = 0
KHE1 131150Z 30007KT 01/00 A2989 RMK A01 T00090003  RH  096%=      5-min Rain = 0
KHE1 131151Z 30007KT 01/00 A2989 RMK A01 T00090003  RH  096%=      5-min Rain = 0
KHE1 131152Z 29008KT 01/00 A2989 RMK A01 T00090003  RH  096%=      5-min Rain = 0
KHE1 131153Z 29007KT 01/00 A2989 RMK A01 T00090002  RH  095%=      5-min Rain = 0
KHE1 131154Z 29007KT 01/00 A2989 RMK A01 T00090002  RH  095%=      5-min Rain = 0
KHE1 131155Z 29007KT 01/00 A2989 RMK A01 T00080002  RH  095%=      5-min Rain = 0
KHE1 131156Z 29007KT 01/00 A2989 RMK A01 T00090002  RH  095%=      5-min Rain = 0
KHE1 131157Z 29008KT 01/00 A2989 RMK A01 T00080002  RH  095%=      5-min Rain = 0
KHE1 131158Z 29007KT 01/00 A2989 RMK A01 T00080002  RH  096%=      5-min Rain = 0
KHE1 131159Z 29007KT 01/00 A2989 RMK A01 T00080002  RH  096%=      5-min Rain = 0
KHE1 131200Z 29007KT 01/00 A2989 RMK A01 T00080002  RH  096%=      5-min Rain = 0
KHE1 131201Z 29007KT 01/00 A2989 RMK A01 T00080002  RH  096%=      5-min Rain = 0
KHE1 131202Z 29007KT 01/00 A2989 RMK A01 T00080002  RH  096%=      5-min Rain = 0
KHE1 131203Z 29007KT 01/00 A2989 RMK A01 T00080002  RH  096%=      5-min Rain = 0
KHE1 131204Z 29007KT 01/00 A2989 RMK A01 T00080002  RH  096%=      5-min Rain = 0
KHE1 131205Z 29007KT 01/00 A2989 RMK A01 T00080002  RH  096%=      5-min Rain = 0
KHE1 131206Z 29006KT 01/00 A2989 RMK A01 T00080002  RH  095%=      5-min Rain = 0
KHE1 131207Z 29006KT 01/00 A2989 RMK A01 T00070001  RH  095%=      5-min Rain = 0
KHE1 131208Z 29007KT 01/00 A2989 RMK A01 T00070000  RH  095%=      5-min Rain = 0
KHE1 131209Z 29007KT 01/00 A2989 RMK A01 T00070000  RH  095%=      5-min Rain = 0
KHE1 131210Z 29007KT 01/00 A2989 RMK A01 T000600-0  RH  095%=      5-min Rain = 0
KHE1 131211Z 29007KT 01/00 A2989 RMK A01 T000600-0  RH  096%=      5-min Rain = 0
KHE1 131212Z 30006KT 01/00 A2989 RMK A01 T000600-0  RH  096%=      5-min Rain = 0
KHE1 131213Z 29006KT 01/00 A2989 RMK A01 T000600-0  RH  096%=      5-min Rain = 0
KHE1 131214Z 29006KT 01/00 A2989 RMK A01 T00060000  RH  096%=      5-min Rain = 0
KHE1 131215Z 30006KT 01/00 A2989 RMK A01 T00060000  RH  096%=      5-min Rain = 0
KHE1 131216Z 29006KT 01/00 A2989 RMK A01 T00070001  RH  096%=      5-min Rain = 0
KHE1 131217Z 29006KT 01/00 A299 RMK A01 T00070001  RH  096%=      5-min Rain = 0
KHE1 131218Z 29006KT 01/00 A299 RMK A01 T00070001  RH  096%=      5-min Rain = 0
KHE1 131219Z 29006KT 01/00 A299 RMK A01 T00070001  RH  096%=      5-min Rain = 0
KHE1 131220Z 29005KT 01/00 A299 RMK A01 T00070001  RH  096%=      5-min Rain = 0
KHE1 131221Z 29006KT 01/00 A299 RMK A01 T00070001  RH  096%=      5-min Rain = 0
KHE1 131222Z 29006KT 01/00 A299 RMK A01 T00080002  RH  096%=      5-min Rain = 0
KHE1 131223Z 29006KT 01/00 A299 RMK A01 T00080002  RH  096%=      5-min Rain = 0
KHE1 131224Z 30006KT 01/00 A299 RMK A01 T00080002  RH  096%=      5-min Rain = 0
KHE1 131225Z 30007KT 01/00 A299 RMK A01 T00080002  RH  096%=      5-min Rain = 0
KHE1 131226Z 30007KT 01/00 A299 RMK A01 T00080002  RH  096%=      5-min Rain = 0
KHE1 131227Z 30007KT 01/00 A299 RMK A01 T00080002  RH  096%=      5-min Rain = 0
KHE1 131228Z 30007KT 01/00 A299 RMK A01 T00090002  RH  096%=      5-min Rain = 0
KHE1 131229Z 30007KT 01/00 A299 RMK A01 T00080002  RH  096%=      5-min Rain = 0
KHE1 131230Z 30008KT 01/00 A2989 RMK A01 T00090003  RH  096%=      5-min Rain = 0
KHE1 131231Z 31007KT 01/00 A2989 RMK A01 T00090003  RH  096%=      5-min Rain = 0
KHE1 131232Z 31007KT 01/00 A299 RMK A01 T00090003  RH  096%=      5-min Rain = 0
KHE1 131233Z 31008KT 01/00 A299 RMK A01 T00090003  RH  096%=      5-min Rain = 0
KHE1 131234Z 31008KT 01/00 A299 RMK A01 T00090003  RH  096%=      5-min Rain = 0
KHE1 131235Z 31007KT 01/00 A299 RMK A01 T00090003  RH  095%=      5-min Rain = 0
KHE1 131236Z 31007KT 01/00 A299 RMK A01 T00100003  RH  096%=      5-min Rain = 0
KHE1 131237Z 31008KT 01/00 A299 RMK A01 T00090003  RH  095%=      5-min Rain = 0
KHE1 131238Z 31008KT 01/00 A299 RMK A01 T00090002  RH  095%=      5-min Rain = 0
KHE1 131239Z 31008KT 01/00 A299 RMK A01 T00090003  RH  095%=      5-min Rain = 0
KHE1 131240Z 31007KT 01/00 A299 RMK A01 T00090003  RH  096%=      5-min Rain = 0
KHE1 131241Z 31007KT 01/00 A299 RMK A01 T00090002  RH  096%=      5-min Rain = 0
KHE1 131242Z 31007KT 01/00 A299 RMK A01 T00090003  RH  096%=      5-min Rain = 0
KHE1 131243Z 31007KT 01/00 A299 RMK A01 T00090003  RH  096%=      5-min Rain = 0
KHE1 131244Z 31007KT 01/00 A299 RMK A01 T00090002  RH  095%=      5-min Rain = 0
KHE1 131245Z 31007KT 01/00 A299 RMK A01 T00090002  RH  095%=      5-min Rain = 0
KHE1 131246Z 31007KT 01/00 A299 RMK A01 T00090002  RH  095%=      5-min Rain = 0
KHE1 131247Z 31007KT 01/00 A299 RMK A01 T00080002  RH  096%=      5-min Rain = 0
KHE1 131248Z 31007KT 01/00 A299 RMK A01 T00080002  RH  096%=      5-min Rain = 0
KHE1 131249Z 31007KT 01/00 A299 RMK A01 T00080002  RH  096%=      5-min Rain = 0
KHE1 131250Z 31007KT 01/00 A299 RMK A01 T00090002  RH  095%=      5-min Rain = 0
KHE1 131251Z 32007KT 01/00 A299 RMK A01 T00090002  RH  096%=      5-min Rain = 0
KHE1 131252Z 32007KT 01/00 A299 RMK A01 T00080002  RH  095%=      5-min Rain = 0
KHE1 131253Z 32008KT 01/00 A299 RMK A01 T00080001  RH  095%=      5-min Rain = 0
KHE1 131254Z 32008KT 01/00 A299 RMK A01 T00080001  RH  095%=      5-min Rain = 0
KHE1 131255Z 32008KT 01/00 A2991 RMK A01 T00080001  RH  095%=      5-min Rain = 0
KHE1 131256Z 32008KT 01/00 A2991 RMK A01 T00070001  RH  096%=      5-min Rain = 0
KHE1 131257Z 32009KT 01/00 A2991 RMK A01 T00070001  RH  096%=      5-min Rain = 0
KHE1 131258Z 32008KT 01/00 A2991 RMK A01 T00070001  RH  096%=      5-min Rain = 0
KHE1 131259Z 31008KT 01/00 A2991 RMK A01 T00070001  RH  096%=      5-min Rain = 0
KHE1 131300Z 31008KT 01/00 A2991 RMK A01 T00070001  RH  096%=      5-min Rain = 0
KHE1 131301Z 31007KT 01/00 A2991 RMK A01 T00070001  RH  096%=      5-min Rain = 0
KHE1 131302Z 31008KT 01/00 A2991 RMK A01 T00070001  RH  096%=      5-min Rain = 0
KHE1 131303Z 31008KT 01/00 A2991 RMK A01 T00070001  RH  096%=      5-min Rain = 0
KHE1 131304Z 31008KT 01/00 A2991 RMK A01 T00070001  RH  096%=      5-min Rain = 0
KHE1 131305Z 31007KT 01/00 A2991 RMK A01 T00070001  RH  096%=      5-min Rain = 0
KHE1 131306Z 31007KT 01/00 A2991 RMK A01 T00070001  RH  096%=      5-min Rain = 0
KHE1 131307Z 31008KT 01/00 A2991 RMK A01 T00070001  RH  096%=      5-min Rain = 0
KHE1 131308Z 31008KT 01/00 A2991 RMK A01 T00070001  RH  096%=      5-min Rain = 0
KHE1 131309Z 31007KT 01/00 A2992 RMK A01 T00080002  RH  096%=      5-min Rain = 0
KHE1 131310Z 31007KT 01/00 A2992 RMK A01 T00080001  RH  096%=      5-min Rain = 0
KHE1 131311Z 31007KT 01/00 A2992 RMK A01 T00080002  RH  096%=      5-min Rain = 0
KHE1 131312Z 30007KT 01/00 A2992 RMK A01 T00080001  RH  096%=      5-min Rain = 0
KHE1 131313Z 30008KT 01/00 A2992 RMK A01 T00080002  RH  096%=      5-min Rain = 0
KHE1 131314Z 30008KT 01/00 A2992 RMK A01 T00080002  RH  096%=      5-min Rain = 0
KHE1 131315Z 30007KT 01/00 A2992 RMK A01 T00080001  RH  096%=      5-min Rain = 0
KHE1 131316Z 30007KT 01/00 A2992 RMK A01 T00080001  RH  096%=      5-min Rain = 0
KHE1 131317Z 30007KT 01/00 A2992 RMK A01 T00080001  RH  096%=      5-min Rain = 0
KHE1 131318Z 30007KT 01/00 A2992 RMK A01 T00080001  RH  096%=      5-min Rain = 0
KHE1 131319Z 31007KT 01/00 A2991 RMK A01 T00080002  RH  096%=      5-min Rain = 0
KHE1 131320Z 31007KT 01/00 A2991 RMK A01 T00080001  RH  096%=      5-min Rain = 0
KHE1 131321Z 31007KT 01/00 A2991 RMK A01 T00080002  RH  096%=      5-min Rain = 0
KHE1 131322Z 31007KT 01/00 A2991 RMK A01 T00080001  RH  096%=      5-min Rain = 0
KHE1 131323Z 31007KT 01/00 A2991 RMK A01 T00080002  RH  096%=      5-min Rain = 0
KHE1 131324Z 31007KT 01/00 A2991 RMK A01 T00080002  RH  096%=      5-min Rain = 0
KHE1 131325Z 31007KT 01/00 A2991 RMK A01 T00080002  RH  095%=      5-min Rain = 0
KHE1 131326Z 31007KT 01/00 A299 RMK A01 T00070001  RH  095%=      5-min Rain = 0
KHE1 131327Z 31007KT 01/00 A2991 RMK A01 T00070000  RH  095%=      5-min Rain = 0
KHE1 131328Z 31007KT 01/00 A2991 RMK A01 T000600-0  RH  095%=      5-min Rain = 0
KHE1 131329Z 31007KT 01/M00 A2991 RMK A01 T00061001  RH  095%=      5-min Rain = 0
KHE1 131330Z 31008KT 01/M00 A2991 RMK A01 T00061001  RH  095%=      5-min Rain = 0
KHE1 131331Z 31008KT 01/M00 A2991 RMK A01 T00051001  RH  095%=      5-min Rain = 0
KHE1 131332Z 31007KT 01/M00 A2991 RMK A01 T00051001  RH  096%=      5-min Rain = 0
KHE1 131333Z 31007KT 01/M00 A2991 RMK A01 T00051001  RH  096%=      5-min Rain = 0
KHE1 131334Z 31007KT 01/M00 A2991 RMK A01 T00051001  RH  096%=      5-min Rain = 0
KHE1 131335Z 30007KT 01/M00 A2991 RMK A01 T00051001  RH  096%=      5-min Rain = 0
KHE1 131336Z 30007KT 01/M00 A2991 RMK A01 T00051001  RH  096%=      5-min Rain = 0
KHE1 131337Z 30007KT 01/M00 A2992 RMK A01 T00051001  RH  096%=      5-min Rain = 0
KHE1 131338Z 30008KT 01/M00 A2992 RMK A01 T00051001  RH  096%=      5-min Rain = 0
KHE1 131339Z 29007KT 01/M00 A2992 RMK A01 T00051001  RH  096%=      5-min Rain = 0
KHE1 131340Z 30007KT 01/M00 A2992 RMK A01 T00051001  RH  096%=      5-min Rain = 0
KHE1 131341Z 30007KT 01/M00 A2992 RMK A01 T00051001  RH  096%=      5-min Rain = 0
KHE1 131342Z 30007KT 01/M00 A2992 RMK A01 T00051001  RH  096%=      5-min Rain = 0
KHE1 131343Z 30007KT 01/00 A2992 RMK A01 T000600-0  RH  096%=      5-min Rain = 0
KHE1 131344Z 30006KT 01/00 A2992 RMK A01 T000600-0  RH  096%=      5-min Rain = 0
KHE1 131345Z 30007KT 01/00 A2992 RMK A01 T000600-0  RH  096%=      5-min Rain = 0
KHE1 131346Z 30007KT 01/00 A2992 RMK A01 T00070000  RH  095%=      5-min Rain = 0
KHE1 131347Z 30006KT 01/00 A2992 RMK A01 T00070000  RH  095%=      5-min Rain = 0
KHE1 131348Z 29006KT 01/00 A2992 RMK A01 T00080001  RH  095%=      5-min Rain = 0
KHE1 131349Z 29006KT 01/00 A2992 RMK A01 T00080001  RH  095%=      5-min Rain = 0
KHE1 131350Z 29006KT 01/00 A2992 RMK A01 T00080001  RH  095%=      5-min Rain = 0
KHE1 131351Z 29006KT 01/00 A2992 RMK A01 T00080001  RH  095%=      5-min Rain = 0
KHE1 131352Z 29006KT 01/00 A2992 RMK A01 T00090002  RH  095%=      5-min Rain = 0
KHE1 131353Z 29006KT 01/00 A2991 RMK A01 T00090002  RH  095%=      5-min Rain = 0
KHE1 131354Z 29006KT 01/00 A2991 RMK A01 T00090002  RH  095%=      5-min Rain = 0
KHE1 131355Z 29006KT 01/00 A2991 RMK A01 T00090002  RH  095%=      5-min Rain = 0
KHE1 131356Z 29006KT 01/00 A2991 RMK A01 T00090002  RH  095%=      5-min Rain = 0
KHE1 131357Z 29006KT 01/00 A2991 RMK A01 T00090002  RH  095%=      5-min Rain = 0
KHE1 131358Z 29005KT 01/00 A2991 RMK A01 T00090002  RH  095%=      5-min Rain = 0
KHE1 131359Z 29005KT 01/00 A2991 RMK A01 T00090002  RH  095%=      5-min Rain = 0
KHE1 131400Z 29006KT 01/00 A2991 RMK A01 T00090002  RH  095%=      5-min Rain = 0
KHE1 131401Z 29006KT 01/00 A2991 RMK A01 T00090002  RH  095%=      5-min Rain = 0
KHE1 131402Z 29006KT 01/00 A2991 RMK A01 T00090002  RH  095%=      5-min Rain = 0
KHE1 131403Z 29007KT 01/00 A2991 RMK A01 T00090002  RH  095%=      5-min Rain = 0
KHE1 131404Z 29007KT 01/00 A2991 RMK A01 T00090002  RH  095%=      5-min Rain = 0
KHE1 131405Z 29007KT 01/00 A2992 RMK A01 T00090002  RH  095%=      5-min Rain = 0
KHE1 131406Z 29007KT 01/00 A2992 RMK A01 T00090002  RH  095%=      5-min Rain = 0
KHE1 131407Z 29007KT 01/00 A2992 RMK A01 T00090002  RH  095%=      5-min Rain = 0
KHE1 131408Z 29007KT 01/00 A2991 RMK A01 T00100003  RH  095%=      5-min Rain = 0
KHE1 131409Z 29006KT 01/00 A2991 RMK A01 T00100003  RH  095%=      5-min Rain = 0
KHE1 131410Z 29006KT 01/00 A2991 RMK A01 T00100003  RH  095%=      5-min Rain = 0
KHE1 131411Z 29006KT 01/00 A2991 RMK A01 T00110004  RH  095%=      5-min Rain = 0
KHE1 131412Z 29006KT 01/00 A2991 RMK A01 T00110004  RH  095%=      5-min Rain = 0
KHE1 131413Z 29006KT 01/00 A2991 RMK A01 T00110004  RH  095%=      5-min Rain = 0
KHE1 131414Z 29006KT 01/01 A2991 RMK A01 T00120005  RH  095%=      5-min Rain = 0
KHE1 131415Z 29006KT 01/01 A2992 RMK A01 T00130006  RH  095%=      5-min Rain = 0
KHE1 131416Z 29006KT 01/01 A2992 RMK A01 T00130006  RH  095%=      5-min Rain = 0
KHE1 131417Z 29006KT 01/01 A2992 RMK A01 T00140006  RH  095%=      5-min Rain = 0
KHE1 131418Z 28006KT 01/01 A2992 RMK A01 T00140006  RH  095%=      5-min Rain = 0
KHE1 131419Z 28006KT 01/01 A2992 RMK A01 T00140007  RH  095%=      5-min Rain = 0
KHE1 131420Z 28006KT 01/01 A2992 RMK A01 T00140006  RH  094%=      5-min Rain = 0
KHE1 131421Z 28006KT 02/01 A2992 RMK A01 T00150006  RH  094%=      5-min Rain = 0
KHE1 131422Z 29006KT 02/01 A2992 RMK A01 T00150007  RH  094%=      5-min Rain = 0
KHE1 131423Z 29006KT 02/01 A2992 RMK A01 T00160007  RH  094%=      5-min Rain = 0
KHE1 131424Z 29006KT 02/01 A2992 RMK A01 T00160008  RH  094%=      5-min Rain = 0
KHE1 131425Z 29006KT 02/01 A2992 RMK A01 T00170008  RH  094%=      5-min Rain = 0
KHE1 131426Z 29006KT 02/01 A2992 RMK A01 T00170008  RH  094%=      5-min Rain = 0
KHE1 131427Z 29006KT 02/01 A2992 RMK A01 T00170008  RH  094%=      5-min Rain = 0
KHE1 131428Z 29006KT 02/01 A2992 RMK A01 T00180009  RH  094%=      5-min Rain = 0
KHE1 131429Z 29006KT 02/01 A2992 RMK A01 T00180009  RH  094%=      5-min Rain = 0
KHE1 131430Z 29006KT 02/01 A2992 RMK A01 T00190009  RH  093%=      5-min Rain = 0
KHE1 131431Z 30006KT 02/01 A2992 RMK A01 T00200010  RH  093%=      5-min Rain = 0
KHE1 131432Z 30006KT 02/01 A2992 RMK A01 T00200010  RH  093%=      5-min Rain = 0
KHE1 131433Z 30006KT 02/01 A2992 RMK A01 T00210011  RH  093%=      5-min Rain = 0
KHE1 131434Z 29005KT 02/01 A2992 RMK A01 T00220012  RH  093%=      5-min Rain = 0
KHE1 131435Z 29006KT 02/01 A2992 RMK A01 T00230012  RH  093%=      5-min Rain = 0
KHE1 131436Z 29005KT 02/01 A2992 RMK A01 T00230011  RH  092%=      5-min Rain = 0
KHE1 131437Z 29005KT 02/01 A2992 RMK A01 T00230012  RH  092%=      5-min Rain = 0
KHE1 131438Z 29005KT 02/01 A2992 RMK A01 T00240012  RH  092%=      5-min Rain = 0
KHE1 131439Z 29005KT 02/01 A2992 RMK A01 T00240012  RH  092%=      5-min Rain = 0
KHE1 131440Z 28004KT 03/01 A2992 RMK A01 T00250012  RH  091%=      5-min Rain = 0
KHE1 131441Z 28005KT 03/01 A2992 RMK A01 T00250013  RH  092%=      5-min Rain = 0
KHE1 131442Z 28004KT 03/01 A2992 RMK A01 T00260013  RH  091%=      5-min Rain = 0
KHE1 131443Z 28005KT 03/01 A2992 RMK A01 T00260013  RH  091%=      5-min Rain = 0
KHE1 131444Z 28004KT 03/01 A2992 RMK A01 T00260013  RH  091%=      5-min Rain = 0
KHE1 131445Z 29005KT 03/01 A2992 RMK A01 T00270014  RH  091%=      5-min Rain = 0
KHE1 131446Z 29005KT 03/01 A2992 RMK A01 T00270013  RH  091%=      5-min Rain = 0
KHE1 131447Z 29005KT 03/01 A2992 RMK A01 T00270014  RH  091%=      5-min Rain = 0
KHE1 131448Z 29005KT 03/01 A2992 RMK A01 T00280014  RH  091%=      5-min Rain = 0
KHE1 131449Z 29005KT 03/01 A2992 RMK A01 T00280014  RH  090%=      5-min Rain = 0
KHE1 131450Z 29005KT 03/01 A2992 RMK A01 T00280013  RH  090%=      5-min Rain = 0
KHE1 131451Z 29005KT 03/01 A2992 RMK A01 T00280014  RH  090%=      5-min Rain = 0
KHE1 131452Z 29006KT 03/01 A2992 RMK A01 T00280014  RH  090%=      5-min Rain = 0
KHE1 131453Z 30006KT 03/02 A2992 RMK A01 T00290015  RH  090%=      5-min Rain = 0
KHE1 131454Z 30006KT 03/01 A2992 RMK A01 T00290014  RH  090%=      5-min Rain = 0
KHE1 131455Z 30006KT 03/02 A2992 RMK A01 T00300015  RH  090%=      5-min Rain = 0
KHE1 131456Z 30005KT 03/02 A2992 RMK A01 T00310016  RH  090%=      5-min Rain = 0
KHE1 131457Z 30005KT 03/02 A2992 RMK A01 T00310017  RH  090%=      5-min Rain = 0
KHE1 131458Z 30006KT 03/02 A2992 RMK A01 T00310016  RH  089%=      5-min Rain = 0
KHE1 131459Z 30006KT 03/02 A2992 RMK A01 T00320016  RH  089%=      5-min Rain = 0
KHE1 131500Z 30006KT 03/02 A2992 RMK A01 T00320016  RH  089%=      5-min Rain = 0
KHE1 131501Z 30006KT 03/02 A2992 RMK A01 T00320015  RH  088%=      5-min Rain = 0
KHE1 131502Z 30006KT 03/02 A2992 RMK A01 T00330016  RH  089%=      5-min Rain = 0
KHE1 131503Z 30006KT 03/02 A2992 RMK A01 T00340017  RH  089%=      5-min Rain = 0
KHE1 131504Z 30005KT 03/02 A2992 RMK A01 T00340018  RH  089%=      5-min Rain = 0
KHE1 131505Z 30005KT 03/02 A2992 RMK A01 T00340019  RH  089%=      5-min Rain = 0
KHE1 131506Z 30005KT 04/02 A2993 RMK A01 T00350018  RH  089%=      5-min Rain = 0
KHE1 131507Z 30005KT 04/02 A2993 RMK A01 T00350018  RH  089%=      5-min Rain = 0
KHE1 131508Z 30005KT 04/02 A2993 RMK A01 T00350018  RH  088%=      5-min Rain = 0
KHE1 131509Z 29004KT 04/02 A2993 RMK A01 T00350017  RH  088%=      5-min Rain = 0
KHE1 131510Z 29004KT 04/02 A2993 RMK A01 T00360018  RH  088%=      5-min Rain = 0
KHE1 131511Z 29004KT 04/02 A2993 RMK A01 T00360018  RH  088%=      5-min Rain = 0
KHE1 131512Z 29005KT 04/02 A2993 RMK A01 T00360018  RH  088%=      5-min Rain = 0
KHE1 131513Z 29005KT 04/02 A2993 RMK A01 T00360018  RH  088%=      5-min Rain = 0
KHE1 131514Z 29005KT 04/02 A2993 RMK A01 T00370018  RH  087%=      5-min Rain = 0
KHE1 131515Z 28005KT 04/02 A2993 RMK A01 T00370019  RH  088%=      5-min Rain = 0
KHE1 131516Z 28005KT 04/02 A2993 RMK A01 T00380021  RH  088%=      5-min Rain = 0
KHE1 131517Z 29005KT 04/02 A2993 RMK A01 T00390022  RH  089%=      5-min Rain = 0
KHE1 131518Z 29005KT 04/02 A2993 RMK A01 T00400021  RH  087%=      5-min Rain = 0
KHE1 131519Z 29005KT 04/02 A2993 RMK A01 T00400022  RH  088%=      5-min Rain = 0
KHE1 131520Z 29005KT 04/02 A2993 RMK A01 T00410021  RH  087%=      5-min Rain = 0
KHE1 131521Z 29005KT 04/02 A2993 RMK A01 T00410021  RH  087%=      5-min Rain = 0
KHE1 131522Z 29005KT 04/02 A2993 RMK A01 T00410022  RH  087%=      5-min Rain = 0
KHE1 131523Z 29006KT 04/02 A2993 RMK A01 T00420023  RH  087%=      5-min Rain = 0
KHE1 131524Z 29005KT 04/03 A2993 RMK A01 T00440026  RH  089%=      5-min Rain = 0
KHE1 131525Z 29005KT 05/03 A2993 RMK A01 T00460026  RH  087%=      5-min Rain = 0
KHE1 131526Z 29006KT 05/03 A2993 RMK A01 T00450025  RH  087%=      5-min Rain = 0
KHE1 131527Z 29006KT 05/03 A2993 RMK A01 T00460026  RH  087%=      5-min Rain = 0
KHE1 131528Z 29006KT 05/03 A2993 RMK A01 T00460025  RH  086%=      5-min Rain = 0
KHE1 131529Z 30007KT 05/03 A2993 RMK A01 T00460025  RH  086%=      5-min Rain = 0
KHE1 131530Z 30006KT 05/03 A2993 RMK A01 T00460025  RH  086%=      5-min Rain = 0
KHE1 131531Z 30006KT 05/03 A2993 RMK A01 T00470026  RH  086%=      5-min Rain = 0
KHE1 131532Z 29006KT 05/03 A2993 RMK A01 T00480027  RH  086%=      5-min Rain = 0
KHE1 131533Z 30006KT 05/03 A2993 RMK A01 T00490026  RH  085%=      5-min Rain = 0
KHE1 131534Z 29007KT 05/03 A2993 RMK A01 T00490025  RH  085%=      5-min Rain = 0
KHE1 131535Z 29006KT 05/03 A2993 RMK A01 T00490026  RH  085%=      5-min Rain = 0
KHE1 131536Z 30007KT 05/03 A2993 RMK A01 T00490027  RH  085%=      5-min Rain = 0
KHE1 131537Z 29006KT 05/03 A2994 RMK A01 T00500027  RH  085%=      5-min Rain = 0
KHE1 131538Z 30006KT 05/03 A2994 RMK A01 T00510027  RH  085%=      5-min Rain = 0
KHE1 131539Z 30005KT 05/03 A2994 RMK A01 T00510026  RH  084%=      5-min Rain = 0
KHE1 131540Z 29005KT 05/03 A2994 RMK A01 T00520027  RH  084%=      5-min Rain = 0
KHE1 131541Z 29005KT 05/03 A2994 RMK A01 T00530029  RH  085%=      5-min Rain = 0
KHE1 131542Z 29005KT 05/03 A2994 RMK A01 T00540029  RH  084%=      5-min Rain = 0
KHE1 131543Z 28005KT 05/03 A2994 RMK A01 T00540027  RH  083%=      5-min Rain = 0
KHE1 131544Z 29005KT 05/03 A2994 RMK A01 T00540028  RH  083%=      5-min Rain = 0
KHE1 131545Z 30005KT 05/03 A2994 RMK A01 T00540028  RH  083%=      5-min Rain = 0
KHE1 131546Z 28005KT 06/03 A2994 RMK A01 T00560030  RH  084%=      5-min Rain = 0
KHE1 131547Z 28006KT 06/03 A2994 RMK A01 T00570030  RH  083%=      5-min Rain = 0
KHE1 131548Z 28005KT 06/03 A2994 RMK A01 T00570029  RH  082%=      5-min Rain = 0
KHE1 131549Z 28005KT 06/03 A2994 RMK A01 T00560029  RH  083%=      5-min Rain = 0
KHE1 131550Z 28005KT 06/03 A2994 RMK A01 T00560028  RH  083%=      5-min Rain = 0
KHE1 131551Z 29005KT 06/03 A2994 RMK A01 T00560030  RH  083%=      5-min Rain = 0
KHE1 131552Z 29005KT 06/03 A2995 RMK A01 T00570030  RH  083%=      5-min Rain = 0
KHE1 131553Z 30006KT 06/03 A2995 RMK A01 T00570030  RH  083%=      5-min Rain = 0
KHE1 131554Z 30005KT 06/03 A2995 RMK A01 T00580030  RH  082%=      5-min Rain = 0
KHE1 131555Z 29005KT 06/03 A2995 RMK A01 T00590031  RH  082%=      5-min Rain = 0
KHE1 131556Z 30005KT 06/03 A2995 RMK A01 T00600030  RH  081%=      5-min Rain = 0
KHE1 131557Z 29004KT 06/03 A2995 RMK A01 T00600031  RH  082%=      5-min Rain = 0
KHE1 131558Z 29005KT 06/03 A2995 RMK A01 T00620034  RH  082%=      5-min Rain = 0
KHE1 131559Z 29005KT 06/03 A2995 RMK A01 T00630033  RH  081%=      5-min Rain = 0
KHE1 131600Z 29005KT 06/03 A2995 RMK A01 T00640034  RH  082%=      5-min Rain = 0
KHE1 131601Z 29005KT 06/03 A2995 RMK A01 T00640034  RH  081%=      5-min Rain = 0
KHE1 131602Z 28004KT 07/03 A2995 RMK A01 T00650033  RH  080%=      5-min Rain = 0
KHE1 131603Z 28004KT 07/04 A2994 RMK A01 T00650035  RH  081%=      5-min Rain = 0
KHE1 131604Z 29005KT 07/03 A2994 RMK A01 T00650034  RH  081%=      5-min Rain = 0
KHE1 131605Z 29005KT 07/04 A2995 RMK A01 T00660036  RH  081%=      5-min Rain = 0
KHE1 131606Z 29005KT 07/04 A2995 RMK A01 T00680036  RH  080%=      5-min Rain = 0
KHE1 131607Z 28005KT 07/04 A2995 RMK A01 T00680035  RH  079%=      5-min Rain = 0
KHE1 131608Z 28005KT 07/04 A2995 RMK A01 T00690037  RH  080%=      5-min Rain = 0
KHE1 131609Z 29005KT 07/04 A2995 RMK A01 T00690037  RH  080%=      5-min Rain = 0
KHE1 131610Z 29005KT 07/04 A2995 RMK A01 T00700037  RH  080%=      5-min Rain = 0
KHE1 131611Z 30005KT 07/04 A2995 RMK A01 T00710038  RH  079%=      5-min Rain = 0
KHE1 131612Z 29005KT 07/04 A2995 RMK A01 T00720038  RH  079%=      5-min Rain = 0
KHE1 131613Z 29005KT 07/04 A2995 RMK A01 T00720037  RH  078%=      5-min Rain = 0
KHE1 131614Z 28005KT 07/04 A2995 RMK A01 T00720037  RH  078%=      5-min Rain = 0
KHE1 131615Z 28005KT 07/04 A2995 RMK A01 T00720037  RH  079%=      5-min Rain = 0
KHE1 131616Z 28005KT 07/04 A2995 RMK A01 T00730037  RH  078%=      5-min Rain = 0
KHE1 131617Z 29005KT 07/04 A2995 RMK A01 T00730037  RH  078%=      5-min Rain = 0
KHE1 131618Z 28004KT 07/04 A2995 RMK A01 T00740037  RH  078%=      5-min Rain = 0
KHE1 131619Z 29004KT 07/04 A2995 RMK A01 T00740037  RH  078%=      5-min Rain = 0
KHE1 131620Z 30005KT 07/04 A2995 RMK A01 T00740037  RH  077%=      5-min Rain = 0
KHE1 131621Z 29003KT 07/04 A2995 RMK A01 T00740037  RH  077%=      5-min Rain = 0
KHE1 131622Z 28003KT 08/04 A2995 RMK A01 T00760040  RH  078%=      5-min Rain = 0
KHE1 131623Z 31004KT 08/04 A2995 RMK A01 T00770039  RH  077%=      5-min Rain = 0
KHE1 131624Z 28004KT 08/04 A2995 RMK A01 T00780040  RH  077%=      5-min Rain = 0
KHE1 131625Z 28005KT 08/04 A2995 RMK A01 T00800041  RH  076%=      5-min Rain = 0
KHE1 131626Z 30004KT 08/04 A2995 RMK A01 T00800040  RH  076%=      5-min Rain = 0
KHE1 131627Z 28002KT 08/04 A2995 RMK A01 T00800039  RH  075%=      5-min Rain = 0
KHE1 131628Z 28002KT 08/04 A2994 RMK A01 T00810042  RH  077%=      5-min Rain = 0
KHE1 131629Z 29003KT 08/04 A2994 RMK A01 T00820040  RH  075%=      5-min Rain = 0
KHE1 131630Z 29002KT 08/04 A2994 RMK A01 T00820040  RH  075%=      5-min Rain = 0
KHE1 131631Z 30003KT 08/04 A2994 RMK A01 T00820039  RH  074%=      5-min Rain = 0
KHE1 131632Z 30003KT 08/04 A2994 RMK A01 T00820040  RH  075%=      5-min Rain = 0
KHE1 131633Z 28002KT 08/04 A2994 RMK A01 T00820039  RH  074%=      5-min Rain = 0
KHE1 131634Z 27003KT 08/04 A2994 RMK A01 T00820040  RH  075%=      5-min Rain = 0
KHE1 131635Z 28003KT 08/04 A2994 RMK A01 T00840043  RH  075%=      5-min Rain = 0
KHE1 131636Z 28004KT 09/04 A2994 RMK A01 T00850041  RH  074%=      5-min Rain = 0
KHE1 131637Z 27005KT 09/04 A2994 RMK A01 T00860041  RH  074%=      5-min Rain = 0
KHE1 131638Z 27004KT 09/04 A2994 RMK A01 T00860044  RH  075%=      5-min Rain = 0
KHE1 131639Z 27004KT 09/04 A2994 RMK A01 T00870041  RH  073%=      5-min Rain = 0
KHE1 131640Z 26004KT 09/04 A2994 RMK A01 T00860043  RH  074%=      5-min Rain = 0
KHE1 131641Z 26003KT 09/04 A2994 RMK A01 T00870042  RH  073%=      5-min Rain = 0
KHE1 131642Z 27005KT 09/04 A2994 RMK A01 T00880044  RH  074%=      5-min Rain = 0
KHE1 131643Z 28005KT 09/04 A2994 RMK A01 T00890041  RH  072%=      5-min Rain = 0
KHE1 131644Z 28003KT 09/04 A2994 RMK A01 T00880040  RH  072%=      5-min Rain = 0
KHE1 131645Z 26004KT 09/04 A2994 RMK A01 T00870043  RH  074%=      5-min Rain = 0
KHE1 131646Z 26005KT 09/04 A2994 RMK A01 T00890044  RH  073%=      5-min Rain = 0
KHE1 131647Z 27004KT 09/04 A2994 RMK A01 T00890041  RH  072%=      5-min Rain = 0
KHE1 131648Z 27003KT 09/04 A2993 RMK A01 T00880042  RH  073%=      5-min Rain = 0
KHE1 131649Z 26002KT 09/04 A2993 RMK A01 T00880042  RH  073%=      5-min Rain = 0
KHE1 131650Z 27002KT 09/04 A2993 RMK A01 T00880042  RH  073%=      5-min Rain = 0
KHE1 131651Z 26003KT 09/05 A2993 RMK A01 T00900045  RH  073%=      5-min Rain = 0
KHE1 131652Z 24004KT 09/05 A2993 RMK A01 T00920047  RH  074%=      5-min Rain = 0
KHE1 131653Z 24004KT 09/05 A2993 RMK A01 T00930045  RH  072%=      5-min Rain = 0
KHE1 131654Z 24005KT 09/05 A2993 RMK A01 T00920046  RH  073%=      5-min Rain = 0
KHE1 131655Z 24004KT 09/05 A2993 RMK A01 T00920046  RH  073%=      5-min Rain = 0
KHE1 131656Z 23003KT 09/05 A2993 RMK A01 T00930045  RH  072%=      5-min Rain = 0
KHE1 131657Z 24004KT 09/05 A2993 RMK A01 T00940047  RH  073%=      5-min Rain = 0
KHE1 131658Z 25003KT 10/05 A2993 RMK A01 T00950047  RH  072%=      5-min Rain = 0
KHE1 131659Z 25003KT 10/05 A2993 RMK A01 T00960046  RH  071%=      5-min Rain = 0
KHE1 131700Z 26003KT 10/05 A2993 RMK A01 T00970048  RH  072%=      5-min Rain = 0
KHE1 131701Z 27004KT 10/05 A2993 RMK A01 T00970046  RH  070%=      5-min Rain = 0
KHE1 131702Z 27005KT 10/05 A2993 RMK A01 T00970046  RH  071%=      5-min Rain = 0
KHE1 131703Z 27004KT 10/05 A2993 RMK A01 T00960046  RH  071%=      5-min Rain = 0
KHE1 131704Z 25003KT 10/05 A2993 RMK A01 T00960048  RH  072%=      5-min Rain = 0
KHE1 131705Z 25004KT 10/05 A2993 RMK A01 T00980049  RH  072%=      5-min Rain = 0
KHE1 131706Z 25005KT 10/05 A2993 RMK A01 T00990048  RH  071%=      5-min Rain = 0
KHE1 131707Z 25004KT 10/05 A2993 RMK A01 T00980045  RH  070%=      5-min Rain = 0
KHE1 131708Z 26004KT 10/05 A2992 RMK A01 T00980046  RH  070%=      5-min Rain = 0
KHE1 131709Z 28005KT 10/05 A2992 RMK A01 T00970046  RH  070%=      5-min Rain = 0
KHE1 131710Z 26005KT 10/05 A2992 RMK A01 T00980046  RH  070%=      5-min Rain = 0
KHE1 131711Z 26005KT 10/05 A2992 RMK A01 T00980046  RH  070%=      5-min Rain = 0
KHE1 131712Z 24005KT 10/05 A2992 RMK A01 T00990047  RH  070%=      5-min Rain = 0
KHE1 131713Z 24005KT 10/05 A2991 RMK A01 T00990047  RH  070%=      5-min Rain = 0
KHE1 131714Z 24005KT 10/05 A2991 RMK A01 T01000048  RH  070%=      5-min Rain = 0
KHE1 131715Z 25005KT 10/05 A2991 RMK A01 T01020049  RH  070%=      5-min Rain = 0
KHE1 131716Z 24005KT 10/05 A2991 RMK A01 T01020049  RH  070%=      5-min Rain = 0
KHE1 131717Z 25006KT 10/05 A2991 RMK A01 T01020047  RH  069%=      5-min Rain = 0
KHE1 131718Z 23004KT 10/05 A2991 RMK A01 T01010047  RH  069%=      5-min Rain = 0
KHE1 131719Z 22004KT 10/05 A2991 RMK A01 T01020050  RH  070%=      5-min Rain = 0
KHE1 131720Z 26004KT 10/05 A2991 RMK A01 T01040049  RH  068%=      5-min Rain = 0
KHE1 131721Z 25004KT 11/05 A2991 RMK A01 T01050049  RH  068%=      5-min Rain = 0
KHE1 131722Z 23004KT 11/05 A2991 RMK A01 T01060053  RH  070%=      5-min Rain = 0
KHE1 131723Z 24004KT 11/05 A2991 RMK A01 T01090052  RH  068%=      5-min Rain = 0
KHE1 131724Z 24004KT 11/05 A2991 RMK A01 T01090050  RH  067%=      5-min Rain = 0
KHE1 131725Z 23004KT 11/05 A2991 RMK A01 T01090050  RH  067%=      5-min Rain = 0
KHE1 131726Z 24004KT 11/05 A2991 RMK A01 T01100051  RH  067%=      5-min Rain = 0
KHE1 131727Z 23004KT 11/05 A2991 RMK A01 T01100052  RH  068%=      5-min Rain = 0
KHE1 131728Z 23004KT 11/05 A2991 RMK A01 T01110051  RH  066%=      5-min Rain = 0
KHE1 131729Z 23003KT 11/05 A2991 RMK A01 T01100049  RH  066%=      5-min Rain = 0
KHE1 131730Z 21003KT 11/05 A2991 RMK A01 T01100051  RH  067%=      5-min Rain = 0
KHE1 131731Z 22003KT 11/05 A2991 RMK A01 T01110053  RH  068%=      5-min Rain = 0
KHE1 131732Z 23004KT 11/06 A2991 RMK A01 T01130055  RH  067%=      5-min Rain = 0
KHE1 131733Z 23004KT 12/06 A2991 RMK A01 T01160056  RH  067%=      5-min Rain = 0
KHE1 131734Z 22003KT 12/05 A299 RMK A01 T01160053  RH  065%=      5-min Rain = 0
KHE1 131735Z 21003KT 12/05 A299 RMK A01 T01160054  RH  065%=      5-min Rain = 0
KHE1 131736Z 21003KT 12/05 A299 RMK A01 T01150051  RH  065%=      5-min Rain = 0
KHE1 131737Z 22002KT 11/05 A299 RMK A01 T01140052  RH  066%=      5-min Rain = 0
KHE1 131738Z 29001KT 12/06 A299 RMK A01 T01150056  RH  067%=      5-min Rain = 0
KHE1 131739Z 30002KT 12/05 A299 RMK A01 T01160053  RH  065%=      5-min Rain = 0
KHE1 131740Z 29002KT 12/05 A299 RMK A01 T01160054  RH  065%=      5-min Rain = 0
KHE1 131741Z 26003KT 12/05 A299 RMK A01 T01170052  RH  064%=      5-min Rain = 0
KHE1 131742Z 26001KT 12/05 A299 RMK A01 T01160050  RH  064%=      5-min Rain = 0
KHE1 131743Z 29002KT 11/05 A299 RMK A01 T01140050  RH  065%=      5-min Rain = 0
KHE1 131744Z 25002KT 11/05 A299 RMK A01 T01140051  RH  065%=      5-min Rain = 0
KHE1 131745Z 23004KT 12/05 A299 RMK A01 T01150053  RH  066%=      5-min Rain = 0
KHE1 131746Z 21003KT 12/05 A299 RMK A01 T01180054  RH  065%=      5-min Rain = 0
KHE1 131747Z 22002KT 12/05 A299 RMK A01 T01180052  RH  064%=      5-min Rain = 0
KHE1 131748Z 21004KT 12/05 A299 RMK A01 T01190053  RH  064%=      5-min Rain = 0
KHE1 131749Z 19003KT 12/05 A299 RMK A01 T01190052  RH  064%=      5-min Rain = 0
KHE1 131750Z 20003KT 12/05 A299 RMK A01 T01200052  RH  063%=      5-min Rain = 0
KHE1 131751Z 24004KT 12/06 A2989 RMK A01 T01210055  RH  064%=      5-min Rain = 0
KHE1 131752Z 23002KT 12/05 A2989 RMK A01 T01220054  RH  063%=      5-min Rain = 0
KHE1 131753Z 20002KT 12/05 A2989 RMK A01 T01210053  RH  063%=      5-min Rain = 0
KHE1 131754Z 20003KT 12/05 A2989 RMK A01 T01220054  RH  063%=      5-min Rain = 0
KHE1 131755Z 22003KT 12/06 A2989 RMK A01 T01240057  RH  064%=      5-min Rain = 0
KHE1 131756Z 23003KT 13/05 A2989 RMK A01 T01250054  RH  062%=      5-min Rain = 0
KHE1 131757Z 23003KT 12/05 A2989 RMK A01 T01240052  RH  062%=      5-min Rain = 0
KHE1 131758Z 22003KT 12/05 A2989 RMK A01 T01220053  RH  063%=      5-min Rain = 0
KHE1 131759Z 22003KT 12/05 A2989 RMK A01 T01230053  RH  062%=      5-min Rain = 0
KHE1 131800Z 20002KT 12/05 A2989 RMK A01 T01230051  RH  061%=      5-min Rain = 0
KHE1 131801Z 21002KT 12/05 A2989 RMK A01 T01230052  RH  062%=      5-min Rain = 0
KHE1 131802Z 22004KT 13/05 A2989 RMK A01 T01250053  RH  062%=      5-min Rain = 0
KHE1 131803Z 23003KT 13/05 A2989 RMK A01 T01250054  RH  062%=      5-min Rain = 0
KHE1 131804Z 24003KT 13/05 A2989 RMK A01 T01260054  RH  062%=      5-min Rain = 0
KHE1 131805Z 21003KT 13/06 A2988 RMK A01 T01260056  RH  062%=      5-min Rain = 0
KHE1 131806Z 22003KT 13/06 A2988 RMK A01 T01280057  RH  062%=      5-min Rain = 0
KHE1 131807Z 23003KT 13/05 A2988 RMK A01 T01280053  RH  061%=      5-min Rain = 0
KHE1 131808Z 19001KT 13/06 A2988 RMK A01 T01270055  RH  062%=      5-min Rain = 0
KHE1 131809Z 19001KT 13/06 A2988 RMK A01 T01300057  RH  061%=      5-min Rain = 0
KHE1 131810Z 17001KT 13/06 A2988 RMK A01 T01320055  RH  060%=      5-min Rain = 0
KHE1 131811Z 15001KT 13/06 A2988 RMK A01 T01330057  RH  060%=      5-min Rain = 0
KHE1 131812Z 16002KT 14/06 A2988 RMK A01 T01350056  RH  059%=      5-min Rain = 0
KHE1 131813Z 19002KT 14/06 A2987 RMK A01 T01360057  RH  059%=      5-min Rain = 0
KHE1 131814Z 19001KT 14/05 A2987 RMK A01 T01350054  RH  058%=      5-min Rain = 0
KHE1 131815Z 21002KT 13/06 A2987 RMK A01 T01340055  RH  059%=      5-min Rain = 0
KHE1 131816Z 22003KT 14/05 A2987 RMK A01 T01350054  RH  058%=      5-min Rain = 0
KHE1 131817Z 24002KT 13/05 A2987 RMK A01 T01330053  RH  058%=      5-min Rain = 0
KHE1 131818Z 23002KT 13/05 A2987 RMK A01 T01310054  RH  059%=      5-min Rain = 0
KHE1 131819Z 20002KT 13/06 A2987 RMK A01 T01310058  RH  061%=      5-min Rain = 0
KHE1 131820Z 21002KT 13/06 A2987 RMK A01 T01340058  RH  060%=      5-min Rain = 0
KHE1 131821Z 20004KT 14/06 A2987 RMK A01 T01360062  RH  061%=      5-min Rain = 0
KHE1 131822Z 20004KT 14/06 A2987 RMK A01 T01390058  RH  058%=      5-min Rain = 0
KHE1 131823Z 20003KT 14/06 A2987 RMK A01 T01380056  RH  058%=      5-min Rain = 0
KHE1 131824Z 23002KT 14/05 A2987 RMK A01 T01350054  RH  058%=      5-min Rain = 0
KHE1 131825Z 23002KT 13/06 A2987 RMK A01 T01340057  RH  059%=      5-min Rain = 0
KHE1 131826Z 17002KT 14/06 A2987 RMK A01 T01350056  RH  059%=      5-min Rain = 0
KHE1 131827Z 18002KT 14/06 A2987 RMK A01 T01380056  RH  058%=      5-min Rain = 0
KHE1 131828Z 18001KT 14/06 A2987 RMK A01 T01400056  RH  057%=      5-min Rain = 0
KHE1 131829Z 15002KT 14/06 A2987 RMK A01 T01430058  RH  056%=      5-min Rain = 0
KHE1 131830Z 13001KT 15/06 A2987 RMK A01 T01450057  RH  055%=      5-min Rain = 0
KHE1 131831Z 20001KT 15/06 A2987 RMK A01 T01460059  RH  056%=      5-min Rain = 0
KHE1 131832Z 22003KT 15/06 A2987 RMK A01 T01470058  RH  055%=      5-min Rain = 0
KHE1 131833Z 25003KT 15/06 A2987 RMK A01 T01470062  RH  057%=      5-min Rain = 0
KHE1 131834Z 17002KT 15/06 A2987 RMK A01 T01450062  RH  057%=      5-min Rain = 0
KHE1 131835Z 19002KT 15/06 A2987 RMK A01 T01470062  RH  057%=      5-min Rain = 0
KHE1 131836Z 23003KT 15/06 A2986 RMK A01 T01490059  RH  055%=      5-min Rain = 0
KHE1 131837Z 24003KT 15/06 A2986 RMK A01 T01450055  RH  055%=      5-min Rain = 0
KHE1 131838Z 22003KT 14/06 A2986 RMK A01 T01420058  RH  057%=      5-min Rain = 0
KHE1 131839Z 22003KT 14/06 A2986 RMK A01 T01430061  RH  058%=      5-min Rain = 0
KHE1 131840Z 21003KT 14/05 A2986 RMK A01 T01440054  RH  055%=      5-min Rain = 0
KHE1 131841Z 22003KT 14/06 A2986 RMK A01 T01430056  RH  056%=      5-min Rain = 0
KHE1 131842Z 18004KT 14/05 A2986 RMK A01 T01440054  RH  055%=      5-min Rain = 0
KHE1 131843Z 17003KT 14/05 A2986 RMK A01 T01440048  RH  053%=      5-min Rain = 0
KHE1 131844Z 18002KT 14/05 A2986 RMK A01 T01440049  RH  053%=      5-min Rain = 0
KHE1 131845Z 19003KT 15/05 A2986 RMK A01 T01450053  RH  054%=      5-min Rain = 0
KHE1 131846Z 19002KT 15/05 A2986 RMK A01 T01460052  RH  053%=      5-min Rain = 0
KHE1 131847Z 24002KT 15/05 A2986 RMK A01 T01460054  RH  054%=      5-min Rain = 0
KHE1 131848Z 21001KT 15/06 A2986 RMK A01 T01460056  RH  055%=      5-min Rain = 0
KHE1 131849Z 17003KT 15/06 A2986 RMK A01 T01480058  RH  055%=      5-min Rain = 0
KHE1 131850Z 19002KT 15/05 A2986 RMK A01 T01500054  RH  053%=      5-min Rain = 0
KHE1 131851Z 25003KT 15/06 A2986 RMK A01 T01510058  RH  054%=      5-min Rain = 0
KHE1 131852Z 21003KT 15/06 A2986 RMK A01 T01490057  RH  054%=      5-min Rain = 0
KHE1 131853Z 22004KT 15/06 A2986 RMK A01 T01480062  RH  056%=      5-min Rain = 0
KHE1 131854Z 21005KT 15/06 A2986 RMK A01 T01500057  RH  054%=      5-min Rain = 0
KHE1 131855Z 20003KT 15/05 A2985 RMK A01 T01500054  RH  053%=      5-min Rain = 0
KHE1 131856Z 21002KT 15/06 A2985 RMK A01 T01490056  RH  054%=      5-min Rain = 0
KHE1 131857Z 22003KT 15/06 A2985 RMK A01 T01500057  RH  054%=      5-min Rain = 0
KHE1 131858Z 24003KT 15/06 A2985 RMK A01 T01500061  RH  055%=      5-min Rain = 0
KHE1 131859Z 24004KT 15/06 A2985 RMK A01 T01510061  RH  055%=      5-min Rain = 0
KHE1 131900Z 25004KT 15/06 A2985 RMK A01 T01500060  RH  055%=      5-min Rain = 0
KHE1 131901Z 24004KT 15/06 A2985 RMK A01 T01480057  RH  054%=      5-min Rain = 0
KHE1 131902Z 21004KT 15/06 A2985 RMK A01 T01470055  RH  054%=      5-min Rain = 0
KHE1 131903Z 21004KT 15/05 A2985 RMK A01 T01490050  RH  052%=      5-min Rain = 0
KHE1 131904Z 21002KT 15/05 A2985 RMK A01 T01480051  RH  052%=      5-min Rain = 0
KHE1 131905Z 21003KT 15/05 A2985 RMK A01 T01500053  RH  053%=      5-min Rain = 0
KHE1 131906Z 22004KT 15/06 A2985 RMK A01 T01510055  RH  053%=      5-min Rain = 0
KHE1 131907Z 26004KT 15/06 A2985 RMK A01 T01520055  RH  052%=      5-min Rain = 0
KHE1 131908Z 25003KT 15/06 A2985 RMK A01 T01510058  RH  054%=      5-min Rain = 0
KHE1 131909Z 23005KT 15/06 A2985 RMK A01 T01510058  RH  053%=      5-min Rain = 0
KHE1 131910Z 24004KT 15/06 A2985 RMK A01 T01520057  RH  053%=      5-min Rain = 0
KHE1 131911Z 25003KT 15/05 A2985 RMK A01 T01520051  RH  051%=      5-min Rain = 0
KHE1 131912Z 25003KT 15/05 A2985 RMK A01 T01500051  RH  051%=      5-min Rain = 0
KHE1 131913Z 24003KT 15/05 A2985 RMK A01 T01500052  RH  052%=      5-min Rain = 0
KHE1 131914Z 22003KT 15/06 A2984 RMK A01 T01510055  RH  053%=      5-min Rain = 0
KHE1 131915Z 21002KT 15/05 A2984 RMK A01 T01520052  RH  051%=      5-min Rain = 0
KHE1 131916Z 23002KT 15/05 A2985 RMK A01 T01530050  RH  050%=      5-min Rain = 0
KHE1 131917Z 24003KT 15/05 A2985 RMK A01 T01530050  RH  050%=      5-min Rain = 0
KHE1 131918Z 23002KT 15/05 A2985 RMK A01 T01530054  RH  052%=      5-min Rain = 0
KHE1 131919Z 22002KT 15/05 A2984 RMK A01 T01540053  RH  051%=      5-min Rain = 0
KHE1 131920Z 19003KT 16/05 A2984 RMK A01 T01550054  RH  051%=      5-min Rain = 0
KHE1 131921Z 21005KT 16/05 A2984 RMK A01 T01570053  RH  050%=      5-min Rain = 0
KHE1 131922Z 20005KT 16/05 A2984 RMK A01 T01560053  RH  050%=      5-min Rain = 0
KHE1 131923Z 19003KT 16/05 A2984 RMK A01 T01560052  RH  050%=      5-min Rain = 0
KHE1 131924Z 18004KT 16/06 A2984 RMK A01 T01550055  RH  051%=      5-min Rain = 0
KHE1 131925Z 20005KT 16/06 A2984 RMK A01 T01580055  RH  050%=      5-min Rain = 0
KHE1 131926Z 21005KT 16/05 A2984 RMK A01 T01580054  RH  050%=      5-min Rain = 0
KHE1 131927Z 20004KT 16/05 A2984 RMK A01 T01590054  RH  050%=      5-min Rain = 0
KHE1 131928Z 24003KT 16/05 A2984 RMK A01 T01590052  RH  049%=      5-min Rain = 0
KHE1 131929Z 25004KT 16/05 A2985 RMK A01 T01560050  RH  049%=      5-min Rain = 0
KHE1 131930Z 26003KT 16/05 A2985 RMK A01 T01550051  RH  050%=      5-min Rain = 0
KHE1 131931Z 25002KT 15/05 A2985 RMK A01 T01540052  RH  051%=      5-min Rain = 0
KHE1 131932Z 23006KT 15/06 A2985 RMK A01 T01540055  RH  052%=      5-min Rain = 0
KHE1 131933Z 23006KT 16/06 A2985 RMK A01 T01570055  RH  051%=      5-min Rain = 0
KHE1 131934Z 24005KT 16/05 A2985 RMK A01 T01570053  RH  050%=      5-min Rain = 0
KHE1 131935Z 25003KT 16/05 A2985 RMK A01 T01560049  RH  049%=      5-min Rain = 0
KHE1 131936Z 22003KT 16/05 A2984 RMK A01 T01550052  RH  050%=      5-min Rain = 0
KHE1 131937Z 20004KT 16/05 A2984 RMK A01 T01560053  RH  050%=      5-min Rain = 0
KHE1 131938Z 23006KT 16/05 A2985 RMK A01 T01580054  RH  050%=      5-min Rain = 0
KHE1 131939Z 25005KT 16/06 A2984 RMK A01 T01600055  RH  050%=      5-min Rain = 0
KHE1 131940Z 24004KT 16/05 A2984 RMK A01 T01590052  RH  049%=      5-min Rain = 0
KHE1 131941Z 22006KT 16/05 A2984 RMK A01 T01580053  RH  050%=      5-min Rain = 0
KHE1 131942Z 21004KT 16/05 A2985 RMK A01 T01580052  RH  049%=      5-min Rain = 0
KHE1 131943Z 19002KT 16/05 A2985 RMK A01 T01590053  RH  049%=      5-min Rain = 0
KHE1 131944Z 21006KT 16/05 A2985 RMK A01 T01610052  RH  048%=      5-min Rain = 0
KHE1 131945Z 23007KT 16/05 A2984 RMK A01 T01630050  RH  047%=      5-min Rain = 0
KHE1 131946Z 24006KT 16/05 A2984 RMK A01 T01620050  RH  047%=      5-min Rain = 0
KHE1 131947Z 25004KT 16/05 A2984 RMK A01 T01620049  RH  047%=      5-min Rain = 0
KHE1 131948Z 24006KT 16/05 A2984 RMK A01 T01620053  RH  048%=      5-min Rain = 0
KHE1 131949Z 23006KT 16/05 A2984 RMK A01 T01630048  RH  046%=      5-min Rain = 0
KHE1 131950Z 22007KT 16/05 A2984 RMK A01 T01620049  RH  047%=      5-min Rain = 0
KHE1 131951Z 22006KT 16/05 A2984 RMK A01 T01640046  RH  046%=      5-min Rain = 0
KHE1 131952Z 24005KT 16/05 A2984 RMK A01 T01640050  RH  047%=      5-min Rain = 0
KHE1 131953Z 24005KT 16/05 A2984 RMK A01 T01640049  RH  046%=      5-min Rain = 0
KHE1 131954Z 23006KT 16/05 A2984 RMK A01 T01640052  RH  047%=      5-min Rain = 0
KHE1 131955Z 22006KT 16/05 A2984 RMK A01 T01640046  RH  046%=      5-min Rain = 0
KHE1 131956Z 21006KT 16/05 A2984 RMK A01 T01640048  RH  046%=      5-min Rain = 0
KHE1 131957Z 21004KT 17/05 A2984 RMK A01 T01650047  RH  046%=      5-min Rain = 0
KHE1 131958Z 22004KT 17/05 A2983 RMK A01 T01650047  RH  046%=      5-min Rain = 0
KHE1 131959Z 22004KT 17/05 A2983 RMK A01 T01650047  RH  045%=      5-min Rain = 0
KHE1 132000Z 25005KT 17/05 A2983 RMK A01 T01660048  RH  046%=      5-min Rain = 0
KHE1 132001Z 24005KT 17/05 A2983 RMK A01 T01680052  RH  046%=      5-min Rain = 0
KHE1 132002Z 23005KT 17/05 A2983 RMK A01 T01680053  RH  047%=      5-min Rain = 0
KHE1 132003Z 21005KT 17/05 A2983 RMK A01 T01690051  RH  046%=      5-min Rain = 0
KHE1 132004Z 22008KT 17/05 A2983 RMK A01 T01690048  RH  045%=      5-min Rain = 0
KHE1 132005Z 23006KT 17/05 A2983 RMK A01 T01690047  RH  044%=      5-min Rain = 0
KHE1 132006Z 21006KT 17/05 A2984 RMK A01 T01680047  RH  045%=      5-min Rain = 0
KHE1 132007Z 24006KT 17/04 A2984 RMK A01 T01680043  RH  043%=      5-min Rain = 0
KHE1 132008Z 25006KT 17/05 A2983 RMK A01 T01690050  RH  045%=      5-min Rain = 0
KHE1 132009Z 26006KT 17/05 A2983 RMK A01 T01710051  RH  045%=      5-min Rain = 0
KHE1 132010Z 25005KT 17/05 A2983 RMK A01 T01710051  RH  045%=      5-min Rain = 0
KHE1 132011Z 21007KT 17/05 A2983 RMK A01 T01720051  RH  045%=      5-min Rain = 0
KHE1 132012Z 22006KT 17/05 A2983 RMK A01 T01730052  RH  045%=      5-min Rain = 0
KHE1 132013Z 21007KT 18/05 A2983 RMK A01 T01750049  RH  043%=      5-min Rain = 0
KHE1 132014Z 22004KT 17/04 A2984 RMK A01 T01720043  RH  042%=      5-min Rain = 0
KHE1 132015Z 24005KT 17/04 A2984 RMK A01 T01700044  RH  043%=      5-min Rain = 0
KHE1 132016Z 24005KT 17/05 A2984 RMK A01 T01700051  RH  045%=      5-min Rain = 0
KHE1 132017Z 24007KT 17/05 A2983 RMK A01 T01710046  RH  043%=      5-min Rain = 0
KHE1 132018Z 23007KT 17/04 A2983 RMK A01 T01710043  RH  043%=      5-min Rain = 0
KHE1 132019Z 25006KT 17/05 A2983 RMK A01 T01710045  RH  043%=      5-min Rain = 0
KHE1 132020Z 26007KT 17/04 A2983 RMK A01 T01720044  RH  043%=      5-min Rain = 0
KHE1 132021Z 24007KT 17/04 A2983 RMK A01 T01720043  RH  042%=      5-min Rain = 0
KHE1 132022Z 21006KT 17/05 A2983 RMK A01 T01720052  RH  045%=      5-min Rain = 0
KHE1 132023Z 19007KT 17/05 A2983 RMK A01 T01730048  RH  043%=      5-min Rain = 0
KHE1 132024Z 20005KT 17/05 A2983 RMK A01 T01720050  RH  044%=      5-min Rain = 0
KHE1 132025Z 22005KT 17/05 A2984 RMK A01 T01720048  RH  044%=      5-min Rain = 0
KHE1 132026Z 26005KT 17/04 A2984 RMK A01 T01730041  RH  042%=      5-min Rain = 0
KHE1 132027Z 26006KT 17/04 A2984 RMK A01 T01720037  RH  041%=      5-min Rain = 0
KHE1 132028Z 27007KT 17/04 A2984 RMK A01 T01730042  RH  042%=      5-min Rain = 0
KHE1 132029Z 26006KT 17/04 A2984 RMK A01 T01730039  RH  041%=      5-min Rain = 0
KHE1 132030Z 25007KT 17/04 A2984 RMK A01 T01740041  RH  041%=      5-min Rain = 0
KHE1 132031Z 23006KT 17/04 A2984 RMK A01 T01730036  RH  040%=      5-min Rain = 0
KHE1 132032Z 25008KT 17/04 A2984 RMK A01 T01730042  RH  042%=      5-min Rain = 0
KHE1 132033Z 23010KT 17/04 A2984 RMK A01 T01730038  RH  041%=      5-min Rain = 0
KHE1 132034Z 22010KT 17/04 A2984 RMK A01 T01730038  RH  041%=      5-min Rain = 0
KHE1 132035Z 23008KT 17/04 A2984 RMK A01 T01730036  RH  040%=      5-min Rain = 0
KHE1 132036Z 25007KT 17/04 A2984 RMK A01 T01730040  RH  041%=      5-min Rain = 0
KHE1 132037Z 25006KT 17/04 A2983 RMK A01 T01730042  RH  042%=      5-min Rain = 0
KHE1 132038Z 22006KT 17/05 A2983 RMK A01 T01740046  RH  043%=      5-min Rain = 0
KHE1 132039Z 22008KT 18/04 A2983 RMK A01 T01750039  RH  040%=      5-min Rain = 0
KHE1 132040Z 22009KT 18/04 A2983 RMK A01 T01760042  RH  041%=      5-min Rain = 0
KHE1 132041Z 24007KT 18/04 A2983 RMK A01 T01760042  RH  041%=      5-min Rain = 0
KHE1 132042Z 24008KT 18/04 A2983 RMK A01 T01760044  RH  041%=      5-min Rain = 0
KHE1 132043Z 23007KT 18/04 A2983 RMK A01 T01760043  RH  041%=      5-min Rain = 0
KHE1 132044Z 22008KT 18/04 A2983 RMK A01 T01750044  RH  042%=      5-min Rain = 0
KHE1 132045Z 22006KT 18/04 A2983 RMK A01 T01760042  RH  041%=      5-min Rain = 0
KHE1 132046Z 22006KT 18/04 A2984 RMK A01 T01760041  RH  041%=      5-min Rain = 0
KHE1 132047Z 22005KT 18/04 A2984 RMK A01 T01750040  RH  041%=      5-min Rain = 0
KHE1 132048Z 24007KT 18/04 A2983 RMK A01 T01750042  RH  041%=      5-min Rain = 0
KHE1 132049Z 23005KT 18/04 A2983 RMK A01 T01750041  RH  041%=      5-min Rain = 0
KHE1 132050Z 23006KT 18/04 A2983 RMK A01 T01750042  RH  041%=      5-min Rain = 0
KHE1 132051Z 22005KT 18/04 A2983 RMK A01 T01750042  RH  041%=      5-min Rain = 0
KHE1 132052Z 24005KT 18/04 A2984 RMK A01 T01760043  RH  041%=      5-min Rain = 0
KHE1 132053Z 24006KT 18/04 A2984 RMK A01 T01760043  RH  041%=      5-min Rain = 0
KHE1 132054Z 24008KT 18/04 A2983 RMK A01 T01750043  RH  042%=      5-min Rain = 0
KHE1 132055Z 25006KT 17/04 A2983 RMK A01 T01740041  RH  041%=      5-min Rain = 0
KHE1 132056Z 24006KT 18/04 A2983 RMK A01 T01750043  RH  041%=      5-min Rain = 0
KHE1 132057Z 24004KT 18/04 A2983 RMK A01 T01750043  RH  041%=      5-min Rain = 0
KHE1 132058Z 25005KT 18/04 A2983 RMK A01 T01760042  RH  041%=      5-min Rain = 0
KHE1 132059Z 25005KT 18/04 A2983 RMK A01 T01760043  RH  042%=      5-min Rain = 0
KHE1 132100Z 25004KT 18/04 A2983 RMK A01 T01760043  RH  041%=      5-min Rain = 0
KHE1 132101Z 21003KT 18/04 A2983 RMK A01 T01760044  RH  042%=      5-min Rain = 0
KHE1 132102Z 22003KT 18/04 A2983 RMK A01 T01760039  RH  040%=      5-min Rain = 0
KHE1 132103Z 23006KT 18/04 A2983 RMK A01 T01770041  RH  040%=      5-min Rain = 0
KHE1 132104Z 22005KT 18/04 A2983 RMK A01 T01770038  RH  040%=      5-min Rain = 0
KHE1 132105Z 22004KT 18/04 A2983 RMK A01 T01770035  RH  039%=      5-min Rain = 0
KHE1 132106Z 22005KT 18/04 A2983 RMK A01 T01760038  RH  040%=      5-min Rain = 0
KHE1 132107Z 23006KT 18/04 A2983 RMK A01 T01760037  RH  040%=      5-min Rain = 0
KHE1 132108Z 23005KT 18/04 A2983 RMK A01 T01770041  RH  041%=      5-min Rain = 0
KHE1 132109Z 23004KT 18/04 A2983 RMK A01 T01770043  RH  041%=      5-min Rain = 0
KHE1 132110Z 21004KT 18/05 A2983 RMK A01 T01780045  RH  041%=      5-min Rain = 0
KHE1 132111Z 22005KT 18/04 A2983 RMK A01 T01790039  RH  039%=      5-min Rain = 0
KHE1 132112Z 21005KT 18/04 A2983 RMK A01 T01780041  RH  040%=      5-min Rain = 0
KHE1 132113Z 22007KT 18/04 A2983 RMK A01 T01790043  RH  041%=      5-min Rain = 0
KHE1 132114Z 23006KT 18/04 A2983 RMK A01 T01790043  RH  040%=      5-min Rain = 0
KHE1 132115Z 21006KT 18/04 A2983 RMK A01 T01800042  RH  040%=      5-min Rain = 0
KHE1 132116Z 21007KT 18/04 A2983 RMK A01 T01800040  RH  039%=      5-min Rain = 0
KHE1 132117Z 21006KT 18/04 A2983 RMK A01 T01800038  RH  039%=      5-min Rain = 0
KHE1 132118Z 21005KT 18/04 A2982 RMK A01 T01800037  RH  039%=      5-min Rain = 0
KHE1 132119Z 23004KT 18/04 A2982 RMK A01 T01790037  RH  039%=      5-min Rain = 0
KHE1 132120Z 21003KT 18/04 A2982 RMK A01 T01790038  RH  039%=      5-min Rain = 0
KHE1 132121Z 22002KT 18/04 A2982 RMK A01 T01800038  RH  039%=      5-min Rain = 0
KHE1 132122Z 23003KT 18/04 A2982 RMK A01 T01800042  RH  040%=      5-min Rain = 0
KHE1 132123Z 21003KT 18/04 A2982 RMK A01 T01810040  RH  039%=      5-min Rain = 0
KHE1 132124Z 23003KT 18/04 A2982 RMK A01 T01820038  RH  038%=      5-min Rain = 0
KHE1 132125Z 21004KT 18/04 A2982 RMK A01 T01820038  RH  038%=      5-min Rain = 0
KHE1 132126Z 21005KT 18/04 A2982 RMK A01 T01830038  RH  038%=      5-min Rain = 0
KHE1 132127Z 20005KT 18/04 A2982 RMK A01 T01820039  RH  039%=      5-min Rain = 0
KHE1 132128Z 20006KT 18/04 A2982 RMK A01 T01820038  RH  038%=      5-min Rain = 0
KHE1 132129Z 21005KT 18/04 A2982 RMK A01 T01820037  RH  038%=      5-min Rain = 0
KHE1 132130Z 21005KT 18/04 A2982 RMK A01 T01820037  RH  038%=      5-min Rain = 0
KHE1 132131Z 21004KT 18/04 A2982 RMK A01 T01810037  RH  038%=      5-min Rain = 0
KHE1 132132Z 21004KT 18/04 A2982 RMK A01 T01810040  RH  039%=      5-min Rain = 0
KHE1 132133Z 20005KT 18/04 A2982 RMK A01 T01820040  RH  039%=      5-min Rain = 0
KHE1 132134Z 21007KT 18/04 A2982 RMK A01 T01820038  RH  038%=      5-min Rain = 0
KHE1 132135Z 21007KT 18/04 A2982 RMK A01 T01810038  RH  039%=      5-min Rain = 0
KHE1 132136Z 21007KT 18/04 A2982 RMK A01 T01810038  RH  039%=      5-min Rain = 0
KHE1 132137Z 22006KT 18/04 A2982 RMK A01 T01810037  RH  038%=      5-min Rain = 0
KHE1 132138Z 22005KT 18/04 A2982 RMK A01 T01810038  RH  039%=      5-min Rain = 0
KHE1 132139Z 22005KT 18/04 A2982 RMK A01 T01810038  RH  039%=      5-min Rain = 0
KHE1 132140Z 22005KT 18/04 A2982 RMK A01 T01800036  RH  038%=      5-min Rain = 0
KHE1 132141Z 21004KT 18/03 A2982 RMK A01 T01800034  RH  038%=      5-min Rain = 0
KHE1 132142Z 20004KT 18/03 A2982 RMK A01 T01810034  RH  038%=      5-min Rain = 0
KHE1 132143Z 19003KT 18/04 A2982 RMK A01 T01810035  RH  038%=      5-min Rain = 0
KHE1 132144Z 21002KT 18/04 A2982 RMK A01 T01810036  RH  038%=      5-min Rain = 0
KHE1 132145Z 22002KT 18/04 A2982 RMK A01 T01820035  RH  038%=      5-min Rain = 0
KHE1 132146Z 22002KT 18/04 A2982 RMK A01 T01820038  RH  038%=      5-min Rain = 0
KHE1 132147Z 17002KT 18/04 A2982 RMK A01 T01820040  RH  039%=      5-min Rain = 0
KHE1 132148Z 16002KT 18/04 A2981 RMK A01 T01830037  RH  038%=      5-min Rain = 0
KHE1 132149Z 16002KT 18/04 A2981 RMK A01 T01840038  RH  038%=      5-min Rain = 0
KHE1 132150Z 14001KT 19/04 A2981 RMK A01 T01850037  RH  037%=      5-min Rain = 0
KHE1 132151Z 12002KT 19/04 A2981 RMK A01 T01850037  RH  037%=      5-min Rain = 0
KHE1 132152Z 11002KT 18/03 A2981 RMK A01 T01840034  RH  037%=      5-min Rain = 0
KHE1 132153Z 11001KT 18/04 A2981 RMK A01 T01830036  RH  038%=      5-min Rain = 0
KHE1 132154Z 09001KT 18/04 A2981 RMK A01 T01830040  RH  039%=      5-min Rain = 0
KHE1 132155Z 11001KT 18/04 A2981 RMK A01 T01830042  RH  039%=      5-min Rain = 0
KHE1 132156Z 08001KT 18/04 A2981 RMK A01 T01830035  RH  037%=      5-min Rain = 0
KHE1 132157Z 07002KT 18/04 A2981 RMK A01 T01830039  RH  038%=      5-min Rain = 0
KHE1 132158Z 07002KT 18/04 A2981 RMK A01 T01820039  RH  039%=      5-min Rain = 0
KHE1 132159Z 06002KT 18/04 A2981 RMK A01 T01820037  RH  038%=      5-min Rain = 0
KHE1 132200Z 06002KT 18/04 A2981 RMK A01 T01810037  RH  038%=      5-min Rain = 0
KHE1 132201Z 06002KT 18/04 A2981 RMK A01 T01810036  RH  038%=      5-min Rain = 0
KHE1 132202Z 07001KT 18/04 A2981 RMK A01 T01810040  RH  039%=      5-min Rain = 0
KHE1 132203Z 04000KT 18/04 A2981 RMK A01 T01810041  RH  039%=      5-min Rain = 0
KHE1 132204Z 04000KT 18/04 A2981 RMK A01 T01820042  RH  039%=      5-min Rain = 0
KHE1 132205Z 00000KT 18/04 A2981 RMK A01 T01840040  RH  039%=      5-min Rain = 0
KHE1 132206Z 08000KT 18/04 A2981 RMK A01 T01840037  RH  038%=      5-min Rain = 0
KHE1 132207Z 09000KT 19/04 A2981 RMK A01 T01850035  RH  037%=      5-min Rain = 0
KHE1 132208Z 18000KT 19/04 A2982 RMK A01 T01860035  RH  037%=      5-min Rain = 0
KHE1 132209Z 17001KT 19/03 A2982 RMK A01 T01880034  RH  036%=      5-min Rain = 0
KHE1 132210Z 16000KT 19/03 A2982 RMK A01 T01890032  RH  035%=      5-min Rain = 0
KHE1 132211Z 16001KT 19/03 A2982 RMK A01 T01900034  RH  035%=      5-min Rain = 0
KHE1 132212Z 17000KT 19/03 A2982 RMK A01 T01920034  RH  035%=      5-min Rain = 0
KHE1 132213Z 00000KT 19/03 A2982 RMK A01 T01920034  RH  035%=      5-min Rain = 0
KHE1 132214Z 00000KT 19/03 A2982 RMK A01 T01910034  RH  035%=      5-min Rain = 0
KHE1 132215Z 17001KT 19/04 A2982 RMK A01 T01900037  RH  036%=      5-min Rain = 0
KHE1 132216Z 17000KT 19/04 A2982 RMK A01 T01890037  RH  037%=      5-min Rain = 0
KHE1 132217Z 00000KT 19/04 A2982 RMK A01 T01880038  RH  037%=      5-min Rain = 0
KHE1 132218Z 11001KT 19/04 A2982 RMK A01 T01870036  RH  037%=      5-min Rain = 0
KHE1 132219Z 12001KT 19/04 A2982 RMK A01 T01870041  RH  038%=      5-min Rain = 0
KHE1 132220Z 12001KT 19/04 A2982 RMK A01 T01860040  RH  038%=      5-min Rain = 0
KHE1 132221Z 13001KT 19/04 A2982 RMK A01 T01850038  RH  038%=      5-min Rain = 0
KHE1 132222Z 13001KT 18/04 A2982 RMK A01 T01840038  RH  038%=      5-min Rain = 0
KHE1 132223Z 13001KT 18/04 A2982 RMK A01 T01830038  RH  038%=      5-min Rain = 0
KHE1 132224Z 14001KT 18/04 A2982 RMK A01 T01830040  RH  039%=      5-min Rain = 0
KHE1 132225Z 15001KT 18/04 A2982 RMK A01 T01840038  RH  038%=      5-min Rain = 0
KHE1 132226Z 15001KT 19/04 A2982 RMK A01 T01860038  RH  038%=      5-min Rain = 0
KHE1 132227Z 15001KT 19/04 A2982 RMK A01 T01860035  RH  037%=      5-min Rain = 0
KHE1 132228Z 15001KT 19/03 A2982 RMK A01 T01860033  RH  036%=      5-min Rain = 0
KHE1 132229Z 15001KT 19/03 A2982 RMK A01 T01860032  RH  036%=      5-min Rain = 0
KHE1 132230Z 15001KT 19/03 A2982 RMK A01 T01860034  RH  037%=      5-min Rain = 0
KHE1 132231Z 16001KT 19/04 A2982 RMK A01 T01860035  RH  037%=      5-min Rain = 0
KHE1 132232Z 15002KT 19/04 A2982 RMK A01 T01870038  RH  037%=      5-min Rain = 0
KHE1 132233Z 14003KT 19/05 A2982 RMK A01 T01870046  RH  039%=      5-min Rain = 0
KHE1 132234Z 14003KT 19/05 A2982 RMK A01 T01870049  RH  040%=      5-min Rain = 0
KHE1 132235Z 15003KT 19/05 A2982 RMK A01 T01850050  RH  041%=      5-min Rain = 0
KHE1 132236Z 15003KT 18/05 A2983 RMK A01 T01830050  RH  042%=      5-min Rain = 0
KHE1 132237Z 15003KT 18/05 A2983 RMK A01 T01820054  RH  043%=      5-min Rain = 0
KHE1 132238Z 15003KT 18/06 A2983 RMK A01 T01810055  RH  043%=      5-min Rain = 0
KHE1 132239Z 16003KT 18/06 A2983 RMK A01 T01800058  RH  045%=      5-min Rain = 0
KHE1 132240Z 16003KT 18/06 A2983 RMK A01 T01790058  RH  045%=      5-min Rain = 0
KHE1 132241Z 16003KT 18/06 A2983 RMK A01 T01790058  RH  045%=      5-min Rain = 0
KHE1 132242Z 16003KT 18/06 A2983 RMK A01 T01790059  RH  045%=      5-min Rain = 0
KHE1 132243Z 16003KT 18/06 A2983 RMK A01 T01780058  RH  045%=      5-min Rain = 0
KHE1 132244Z 17003KT 18/05 A2983 RMK A01 T01780054  RH  044%=      5-min Rain = 0
KHE1 132245Z 18003KT 18/05 A2983 RMK A01 T01780051  RH  043%=      5-min Rain = 0
KHE1 132246Z 18004KT 18/05 A2983 RMK A01 T01780050  RH  043%=      5-min Rain = 0
KHE1 132247Z 18004KT 18/05 A2983 RMK A01 T01770050  RH  043%=      5-min Rain = 0
KHE1 132248Z 18004KT 18/05 A2982 RMK A01 T01760049  RH  043%=      5-min Rain = 0
KHE1 132249Z 18004KT 18/05 A2982 RMK A01 T01750047  RH  043%=      5-min Rain = 0
KHE1 132250Z 18004KT 18/05 A2982 RMK A01 T01750047  RH  043%=      5-min Rain = 0
KHE1 132251Z 18004KT 17/05 A2982 RMK A01 T01740045  RH  042%=      5-min Rain = 0
KHE1 132252Z 17004KT 17/05 A2982 RMK A01 T01740045  RH  042%=      5-min Rain = 0
KHE1 132253Z 17004KT 17/04 A2982 RMK A01 T01740044  RH  042%=      5-min Rain = 0
KHE1 132254Z 17004KT 17/04 A2982 RMK A01 T01740043  RH  042%=      5-min Rain = 0
KHE1 132255Z 16005KT 17/05 A2982 RMK A01 T01730045  RH  043%=      5-min Rain = 0
KHE1 132256Z 16005KT 17/05 A2982 RMK A01 T01730048  RH  044%=      5-min Rain = 0
KHE1 132257Z 16005KT 17/05 A2982 RMK A01 T01710048  RH  044%=      5-min Rain = 0
KHE1 132258Z 16005KT 17/05 A2982 RMK A01 T01700048  RH  045%=      5-min Rain = 0
KHE1 132259Z 16005KT 17/05 A2982 RMK A01 T01680050  RH  045%=      5-min Rain = 0
KHE1 132300Z 16005KT 17/05 A2982 RMK A01 T01670049  RH  046%=      5-min Rain = 0
KHE1 132301Z 16004KT 17/05 A2982 RMK A01 T01660048  RH  045%=      5-min Rain = 0
KHE1 132302Z 15005KT 16/05 A2982 RMK A01 T01640048  RH  046%=      5-min Rain = 0
KHE1 132303Z 15004KT 16/05 A2982 RMK A01 T01640048  RH  046%=      5-min Rain = 0
KHE1 132304Z 15004KT 16/05 A2982 RMK A01 T01630046  RH  046%=      5-min Rain = 0
KHE1 132305Z 15004KT 16/04 A2982 RMK A01 T01630044  RH  045%=      5-min Rain = 0
KHE1 132306Z 15004KT 16/04 A2982 RMK A01 T01630042  RH  045%=      5-min Rain = 0
KHE1 132307Z 15005KT 16/04 A2982 RMK A01 T01620040  RH  044%=      5-min Rain = 0
KHE1 132308Z 15005KT 16/04 A2982 RMK A01 T01620041  RH  044%=      5-min Rain = 0
KHE1 132309Z 15005KT 16/04 A2982 RMK A01 T01630042  RH  045%=      5-min Rain = 0
KHE1 132310Z 15005KT 16/04 A2982 RMK A01 T01620042  RH  045%=      5-min Rain = 0
KHE1 132311Z 15005KT 16/04 A2982 RMK A01 T01610042  RH  045%=      5-min Rain = 0
KHE1 132312Z 15005KT 16/04 A2982 RMK A01 T01610042  RH  045%=      5-min Rain = 0
KHE1 132313Z 15005KT 16/04 A2982 RMK A01 T01610042  RH  045%=      5-min Rain = 0
KHE1 132314Z 16005KT 16/04 A2982 RMK A01 T01600043  RH  046%=      5-min Rain = 0
KHE1 132315Z 16005KT 16/04 A2982 RMK A01 T01590044  RH  046%=      5-min Rain = 0
KHE1 132316Z 16005KT 16/04 A2982 RMK A01 T01570044  RH  047%=      5-min Rain = 0
KHE1 132317Z 16005KT 16/04 A2982 RMK A01 T01560043  RH  047%=      5-min Rain = 0
KHE1 132318Z 16005KT 16/04 A2982 RMK A01 T01550044  RH  047%=      5-min Rain = 0
KHE1 132319Z 16005KT 15/04 A2982 RMK A01 T01540043  RH  047%=      5-min Rain = 0
KHE1 132320Z 15005KT 15/04 A2982 RMK A01 T01530043  RH  048%=      5-min Rain = 0
KHE1 132321Z 15006KT 15/04 A2982 RMK A01 T01520042  RH  048%=      5-min Rain = 0
KHE1 132322Z 15005KT 15/04 A2982 RMK A01 T01510041  RH  048%=      5-min Rain = 0
KHE1 132323Z 14006KT 15/04 A2982 RMK A01 T01500041  RH  048%=      5-min Rain = 0
KHE1 132324Z 14005KT 15/04 A2982 RMK A01 T01490042  RH  049%=      5-min Rain = 0
KHE1 132325Z 14005KT 15/04 A2983 RMK A01 T01480043  RH  049%=      5-min Rain = 0
KHE1 132326Z 15005KT 15/04 A2983 RMK A01 T01470042  RH  050%=      5-min Rain = 0
KHE1 132327Z 14005KT 15/04 A2983 RMK A01 T01460042  RH  049%=      5-min Rain = 0
KHE1 132328Z 14005KT 15/04 A2983 RMK A01 T01460042  RH  049%=      5-min Rain = 0
KHE1 132329Z 14005KT 15/04 A2983 RMK A01 T01470042  RH  049%=      5-min Rain = 0
KHE1 132330Z 14005KT 15/04 A2983 RMK A01 T01470040  RH  049%=      5-min Rain = 0
KHE1 132331Z 14004KT 15/04 A2983 RMK A01 T01490040  RH  048%=      5-min Rain = 0
KHE1 132332Z 14005KT 15/04 A2983 RMK A01 T01500040  RH  047%=      5-min Rain = 0
KHE1 132333Z 14005KT 15/04 A2983 RMK A01 T01520039  RH  047%=      5-min Rain = 0
KHE1 132334Z 14005KT 15/04 A2983 RMK A01 T01530039  RH  046%=      5-min Rain = 0
KHE1 132335Z 14005KT 15/04 A2983 RMK A01 T01540039  RH  046%=      5-min Rain = 0
KHE1 132336Z 15005KT 15/04 A2983 RMK A01 T01540039  RH  046%=      5-min Rain = 0
KHE1 132337Z 15005KT 15/04 A2983 RMK A01 T01520039  RH  047%=      5-min Rain = 0
KHE1 132338Z 15006KT 15/04 A2983 RMK A01 T01520039  RH  047%=      5-min Rain = 0
KHE1 132339Z 15006KT 15/04 A2983 RMK A01 T01510039  RH  047%=      5-min Rain = 0
KHE1 132340Z 15006KT 15/04 A2983 RMK A01 T01500038  RH  047%=      5-min Rain = 0
KHE1 132341Z 15006KT 15/04 A2983 RMK A01 T01500038  RH  047%=      5-min Rain = 0
KHE1 132342Z 15006KT 15/04 A2983 RMK A01 T01490039  RH  047%=      5-min Rain = 0
KHE1 132343Z 15006KT 15/04 A2983 RMK A01 T01480038  RH  048%=      5-min Rain = 0
KHE1 132344Z 15005KT 15/04 A2983 RMK A01 T01470038  RH  048%=      5-min Rain = 0
KHE1 132345Z 15005KT 15/04 A2983 RMK A01 T01470038  RH  048%=      5-min Rain = 0
KHE1 132346Z 15005KT 15/04 A2983 RMK A01 T01470039  RH  048%=      5-min Rain = 0
KHE1 132347Z 15005KT 15/04 A2983 RMK A01 T01490038  RH  048%=      5-min Rain = 0
KHE1 132348Z 15005KT 15/04 A2983 RMK A01 T01500038  RH  047%=      5-min Rain = 0
KHE1 132349Z 15005KT 15/04 A2983 RMK A01 T01500038  RH  047%=      5-min Rain = 0
KHE1 132350Z 15005KT 15/04 A2983 RMK A01 T01500038  RH  047%=      5-min Rain = 0
KHE1 132351Z 14005KT 15/04 A2983 RMK A01 T01510038  RH  047%=      5-min Rain = 0
KHE1 132352Z 14005KT 15/04 A2983 RMK A01 T01500038  RH  047%=      5-min Rain = 0
KHE1 132353Z 14005KT 15/04 A2983 RMK A01 T01490038  RH  047%=      5-min Rain = 0
KHE1 132354Z 14005KT 15/04 A2984 RMK A01 T01470037  RH  048%=      5-min Rain = 0
KHE1 132355Z 14005KT 15/04 A2983 RMK A01 T01470037  RH  048%=      5-min Rain = 0
KHE1 132356Z 14005KT 15/04 A2983 RMK A01 T01470037  RH  048%=      5-min Rain = 0
KHE1 132357Z 14005KT 15/04 A2983 RMK A01 T01450037  RH  048%=      5-min Rain = 0
KHE1 132358Z 14005KT 14/04 A2983 RMK A01 T01430037  RH  049%=      5-min Rain = 0
KHE1 132359Z 14005KT 14/04 A2983 RMK A01 T01420037  RH  049%=      5-min Rain = 0
KHE1 140000Z 14005KT 14/04 A2983 RMK A01 T01420038  RH  049%=      5-min Rain = 0
KHE1 140001Z 14005KT 14/04 A2983 RMK A01 T01410038  RH  050%=      5-min Rain = 0
KHE1 140002Z 14005KT 14/04 A2983 RMK A01 T01370038  RH  051%=      5-min Rain = 0
KHE1 140003Z 14005KT 13/04 A2983 RMK A01 T01330037  RH  052%=      5-min Rain = 0
KHE1 140004Z 13005KT 13/04 A2983 RMK A01 T01310038  RH  053%=      5-min Rain = 0
KHE1 140005Z 13005KT 13/04 A2983 RMK A01 T01290037  RH  054%=      5-min Rain = 0
KHE1 140006Z 13005KT 12/04 A2983 RMK A01 T01230035  RH  055%=      5-min Rain = 0
KHE1 140007Z 12005KT 12/04 A2983 RMK A01 T01190036  RH  057%=      5-min Rain = 0
KHE1 140008Z 12004KT 12/04 A2984 RMK A01 T01170037  RH  058%=      5-min Rain = 0
KHE1 140009Z 12004KT 12/04 A2984 RMK A01 T01170038  RH  058%=      5-min Rain = 0
KHE1 140010Z 12004KT 12/04 A2984 RMK A01 T01180037  RH  058%=      5-min Rain = 0
KHE1 140011Z 11005KT 12/04 A2984 RMK A01 T01160036  RH  058%=      5-min Rain = 0
KHE1 140012Z 11005KT 11/04 A2984 RMK A01 T01140037  RH  059%=      5-min Rain = 0
KHE1 140013Z 11005KT 11/04 A2984 RMK A01 T01130037  RH  059%=      5-min Rain = 0
KHE1 140014Z 11005KT 11/04 A2984 RMK A01 T01130037  RH  059%=      5-min Rain = 0
KHE1 140015Z 11005KT 11/04 A2984 RMK A01 T01120036  RH  060%=      5-min Rain = 0
KHE1 140016Z 10005KT 11/04 A2984 RMK A01 T01110036  RH  060%=      5-min Rain = 0
KHE1 140017Z 10005KT 11/04 A2984 RMK A01 T01100035  RH  060%=      5-min Rain = 0
KHE1 140018Z 09005KT 11/04 A2984 RMK A01 T01100036  RH  060%=      5-min Rain = 0
KHE1 140019Z 09006KT 11/04 A2984 RMK A01 T01090036  RH  061%=      5-min Rain = 0
KHE1 140020Z 10005KT 11/04 A2984 RMK A01 T01090036  RH  061%=      5-min Rain = 0
KHE1 140021Z 10005KT 11/04 A2984 RMK A01 T01100036  RH  060%=      5-min Rain = 0
KHE1 140022Z 11005KT 11/04 A2984 RMK A01 T01100036  RH  060%=      5-min Rain = 0
KHE1 140023Z 11005KT 11/04 A2984 RMK A01 T01120037  RH  060%=      5-min Rain = 0
KHE1 140024Z 11005KT 11/04 A2984 RMK A01 T01120037  RH  060%=      5-min Rain = 0
KHE1 140025Z 11005KT 11/04 A2984 RMK A01 T01120037  RH  060%=      5-min Rain = 0
KHE1 140026Z 10005KT 11/04 A2985 RMK A01 T01120037  RH  060%=      5-min Rain = 0
KHE1 140027Z 10005KT 11/04 A2985 RMK A01 T01120036  RH  060%=      5-min Rain = 0
KHE1 140028Z 11005KT 11/04 A2985 RMK A01 T01120036  RH  060%=      5-min Rain = 0
KHE1 140029Z 11005KT 11/04 A2985 RMK A01 T01130036  RH  059%=      5-min Rain = 0
KHE1 140030Z 11006KT 11/04 A2985 RMK A01 T01140035  RH  058%=      5-min Rain = 0
KHE1 140031Z 11005KT 11/03 A2985 RMK A01 T01140034  RH  058%=      5-min Rain = 0
KHE1 140032Z 11005KT 11/03 A2985 RMK A01 T01140034  RH  058%=      5-min Rain = 0
KHE1 140033Z 11006KT 11/03 A2985 RMK A01 T01140034  RH  058%=      5-min Rain = 0
KHE1 140034Z 11006KT 11/04 A2985 RMK A01 T01140035  RH  058%=      5-min Rain = 0
KHE1 140035Z 12005KT 11/04 A2985 RMK A01 T01140035  RH  058%=      5-min Rain = 0
KHE1 140036Z 12005KT 11/04 A2985 RMK A01 T01140035  RH  058%=      5-min Rain = 0
KHE1 140037Z 12006KT 11/03 A2985 RMK A01 T01140034  RH  058%=      5-min Rain = 0
KHE1 140038Z 12006KT 11/03 A2985 RMK A01 T01140034  RH  058%=      5-min Rain = 0
KHE1 140039Z 12005KT 12/04 A2985 RMK A01 T01150035  RH  058%=      5-min Rain = 0
KHE1 140040Z 12005KT 12/03 A2985 RMK A01 T01150034  RH  058%=      5-min Rain = 0
KHE1 140041Z 11005KT 12/03 A2985 RMK A01 T01160034  RH  057%=      5-min Rain = 0
KHE1 140042Z 11005KT 12/04 A2985 RMK A01 T01180035  RH  057%=      5-min Rain = 0
KHE1 140043Z 11005KT 12/03 A2985 RMK A01 T01190034  RH  056%=      5-min Rain = 0
KHE1 140044Z 11005KT 12/03 A2985 RMK A01 T01190034  RH  056%=      5-min Rain = 0
KHE1 140045Z 11005KT 12/03 A2985 RMK A01 T01190034  RH  056%=      5-min Rain = 0
KHE1 140046Z 11005KT 12/03 A2985 RMK A01 T01160033  RH  056%=      5-min Rain = 0
KHE1 140047Z 11005KT 12/03 A2985 RMK A01 T01150033  RH  057%=      5-min Rain = 0
KHE1 140048Z 11005KT 11/03 A2985 RMK A01 T01140034  RH  058%=      5-min Rain = 0
KHE1 140049Z 12005KT 12/04 A2985 RMK A01 T01170035  RH  057%=      5-min Rain = 0
KHE1 140050Z 12005KT 12/04 A2985 RMK A01 T01190036  RH  056%=      5-min Rain = 0
KHE1 140051Z 12006KT 12/04 A2985 RMK A01 T01210035  RH  056%=      5-min Rain = 0
KHE1 140052Z 12006KT 12/04 A2985 RMK A01 T01220035  RH  056%=      5-min Rain = 0
KHE1 140053Z 12006KT 12/04 A2985 RMK A01 T01220035  RH  055%=      5-min Rain = 0
KHE1 140054Z 12006KT 12/04 A2985 RMK A01 T01220035  RH  055%=      5-min Rain = 0
KHE1 140055Z 12006KT 12/04 A2985 RMK A01 T01200035  RH  056%=      5-min Rain = 0
KHE1 140056Z 12006KT 12/04 A2985 RMK A01 T01190035  RH  056%=      5-min Rain = 0
KHE1 140057Z 12006KT 12/04 A2985 RMK A01 T01170035  RH  057%=      5-min Rain = 0
KHE1 140058Z 12006KT 12/04 A2985 RMK A01 T01170035  RH  057%=      5-min Rain = 0
KHE1 140059Z 12006KT 12/04 A2986 RMK A01 T01160035  RH  057%=      5-min Rain = 0
KHE1 140100Z 12006KT 12/04 A2986 RMK A01 T01170035  RH  057%=      5-min Rain = 0
KHE1 140101Z 12005KT 12/04 A2986 RMK A01 T01180035  RH  057%=      5-min Rain = 0
KHE1 140102Z 12005KT 12/04 A2986 RMK A01 T01200036  RH  056%=      5-min Rain = 0
KHE1 140103Z 12005KT 12/04 A2986 RMK A01 T01220036  RH  056%=      5-min Rain = 0
KHE1 140104Z 12006KT 12/04 A2986 RMK A01 T01240035  RH  055%=      5-min Rain = 0
KHE1 140105Z 12006KT 12/03 A2986 RMK A01 T01220033  RH  055%=      5-min Rain = 0
KHE1 140106Z 12006KT 12/03 A2985 RMK A01 T01170032  RH  056%=      5-min Rain = 0
KHE1 140107Z 12006KT 11/03 A2985 RMK A01 T01130031  RH  057%=      5-min Rain = 0
KHE1 140108Z 12006KT 11/03 A2985 RMK A01 T01090031  RH  058%=      5-min Rain = 0
KHE1 140109Z 12006KT 11/03 A2985 RMK A01 T01080032  RH  059%=      5-min Rain = 0
KHE1 140110Z 12006KT 11/03 A2985 RMK A01 T01080033  RH  060%=      5-min Rain = 0
KHE1 140111Z 12006KT 11/03 A2986 RMK A01 T01100034  RH  059%=      5-min Rain = 0
KHE1 140112Z 12006KT 11/03 A2986 RMK A01 T01120034  RH  059%=      5-min Rain = 0
KHE1 140113Z 12006KT 11/04 A2986 RMK A01 T01130035  RH  059%=      5-min Rain = 0
KHE1 140114Z 12006KT 11/03 A2986 RMK A01 T01130034  RH  058%=      5-min Rain = 0
KHE1 140115Z 12006KT 11/03 A2986 RMK A01 T01130034  RH  058%=      5-min Rain = 0
KHE1 140116Z 12006KT 11/03 A2986 RMK A01 T01120034  RH  058%=      5-min Rain = 0
KHE1 140117Z 12006KT 11/03 A2986 RMK A01 T01120034  RH  059%=      5-min Rain = 0
KHE1 140118Z 12006KT 11/03 A2986 RMK A01 T01110034  RH  059%=      5-min Rain = 0
KHE1 140119Z 12006KT 11/03 A2986 RMK A01 T01100033  RH  059%=      5-min Rain = 0
KHE1 140120Z 12006KT 11/03 A2986 RMK A01 T01090034  RH  059%=      5-min Rain = 0
KHE1 140121Z 12006KT 11/03 A2986 RMK A01 T01080033  RH  060%=      5-min Rain = 0
KHE1 140122Z 12006KT 11/03 A2986 RMK A01 T01050032  RH  060%=      5-min Rain = 0
KHE1 140123Z 11007KT 10/03 A2986 RMK A01 T01010031  RH  062%=      5-min Rain = 0
KHE1 140124Z 11007KT 10/03 A2985 RMK A01 T00970030  RH  063%=      5-min Rain = 0
KHE1 140125Z 11007KT 09/03 A2985 RMK A01 T00940030  RH  064%=      5-min Rain = 0
KHE1 140126Z 12007KT 09/03 A2985 RMK A01 T00920030  RH  065%=      5-min Rain = 0
KHE1 140127Z 12006KT 09/03 A2985 RMK A01 T00920031  RH  066%=      5-min Rain = 0
KHE1 140128Z 12007KT 09/03 A2985 RMK A01 T00940033  RH  066%=      5-min Rain = 0
KHE1 140129Z 12007KT 10/03 A2985 RMK A01 T00990034  RH  064%=      5-min Rain = 0
KHE1 140130Z 12007KT 10/04 A2985 RMK A01 T01030035  RH  063%=      5-min Rain = 0
KHE1 140131Z 13007KT 11/03 A2985 RMK A01 T01050034  RH  061%=      5-min Rain = 0
KHE1 140132Z 13007KT 11/03 A2985 RMK A01 T01050034  RH  061%=      5-min Rain = 0
KHE1 140133Z 13007KT 11/03 A2985 RMK A01 T01060034  RH  061%=      5-min Rain = 0
KHE1 140134Z 13006KT 11/04 A2985 RMK A01 T01070035  RH  061%=      5-min Rain = 0
KHE1 140135Z 13007KT 11/03 A2985 RMK A01 T01070034  RH  061%=      5-min Rain = 0
KHE1 140136Z 13006KT 11/04 A2985 RMK A01 T01060035  RH  061%=      5-min Rain = 0
KHE1 140137Z 14007KT 11/04 A2985 RMK A01 T01060035  RH  061%=      5-min Rain = 0
KHE1 140138Z 13007KT 11/04 A2985 RMK A01 T01060036  RH  062%=      5-min Rain = 0
KHE1 140139Z 13007KT 11/04 A2985 RMK A01 T01060036  RH  062%=      5-min Rain = 0
KHE1 140140Z 14007KT 11/04 A2986 RMK A01 T01060036  RH  062%=      5-min Rain = 0
KHE1 140141Z 13007KT 11/04 A2986 RMK A01 T01060035  RH  062%=      5-min Rain = 0
KHE1 140142Z 13007KT 11/04 A2986 RMK A01 T01060035  RH  061%=      5-min Rain = 0
KHE1 140143Z 13007KT 11/04 A2986 RMK A01 T01070035  RH  061%=      5-min Rain = 0
KHE1 140144Z 13007KT 11/04 A2985 RMK A01 T01070035  RH  061%=      5-min Rain = 0
KHE1 140145Z 13007KT 11/04 A2985 RMK A01 T01060035  RH  061%=      5-min Rain = 0
KHE1 140146Z 13007KT 11/04 A2985 RMK A01 T01070036  RH  061%=      5-min Rain = 0
KHE1 140147Z 13007KT 11/04 A2985 RMK A01 T01070035  RH  061%=      5-min Rain = 0
KHE1 140148Z 13007KT 11/04 A2985 RMK A01 T01060035  RH  061%=      5-min Rain = 0
KHE1 140149Z 13007KT 11/04 A2985 RMK A01 T01060035  RH  061%=      5-min Rain = 0
KHE1 140150Z 13007KT 11/04 A2985 RMK A01 T01070035  RH  061%=      5-min Rain = 0
KHE1 140151Z 13007KT 11/03 A2985 RMK A01 T01070034  RH  061%=      5-min Rain = 0
KHE1 140152Z 13007KT 11/03 A2986 RMK A01 T01070034  RH  061%=      5-min Rain = 0
KHE1 140153Z 13007KT 11/03 A2986 RMK A01 T01070034  RH  061%=      5-min Rain = 0
KHE1 140154Z 13007KT 11/03 A2986 RMK A01 T01070034  RH  061%=      5-min Rain = 0
KHE1 140155Z 13007KT 11/03 A2986 RMK A01 T01050034  RH  061%=      5-min Rain = 0
KHE1 140156Z 13006KT 10/03 A2986 RMK A01 T01030033  RH  062%=      5-min Rain = 0
KHE1 140157Z 13007KT 10/03 A2986 RMK A01 T01000032  RH  063%=      5-min Rain = 0
KHE1 140158Z 13007KT 10/03 A2986 RMK A01 T00960030  RH  064%=      5-min Rain = 0
KHE1 140159Z 13007KT 10/03 A2986 RMK A01 T00960031  RH  064%=      5-min Rain = 0
KHE1 140200Z 13007KT 10/03 A2986 RMK A01 T00960031  RH  064%=      5-min Rain = 0
KHE1 140201Z 13007KT 10/03 A2986 RMK A01 T00960031  RH  064%=      5-min Rain = 0
KHE1 140202Z 13007KT 10/03 A2986 RMK A01 T00950031  RH  065%=      5-min Rain = 0
KHE1 140203Z 13007KT 09/03 A2986 RMK A01 T00940031  RH  065%=      5-min Rain = 0
KHE1 140204Z 13007KT 09/03 A2986 RMK A01 T00940032  RH  065%=      5-min Rain = 0
KHE1 140205Z 13007KT 09/03 A2986 RMK A01 T00930031  RH  066%=      5-min Rain = 0
KHE1 140206Z 13007KT 09/03 A2986 RMK A01 T00910031  RH  066%=      5-min Rain = 0
KHE1 140207Z 13007KT 09/03 A2986 RMK A01 T00890031  RH  067%=      5-min Rain = 0
KHE1 140208Z 13007KT 09/03 A2986 RMK A01 T00880031  RH  067%=      5-min Rain = 0
KHE1 140209Z 13007KT 09/03 A2986 RMK A01 T00890032  RH  067%=      5-min Rain = 0
KHE1 140210Z 13007KT 09/03 A2986 RMK A01 T00910032  RH  067%=      5-min Rain = 0
KHE1 140211Z 13007KT 09/03 A2986 RMK A01 T00910032  RH  066%=      5-min Rain = 0
KHE1 140212Z 13007KT 09/03 A2987 RMK A01 T00900032  RH  067%=      5-min Rain = 0
KHE1 140213Z 13007KT 09/03 A2987 RMK A01 T00890032  RH  067%=      5-min Rain = 0
KHE1 140214Z 13007KT 09/03 A2987 RMK A01 T00930033  RH  066%=      5-min Rain = 0
KHE1 140215Z 13007KT 09/03 A2987 RMK A01 T00940032  RH  066%=      5-min Rain = 0
KHE1 140216Z 12007KT 09/03 A2987 RMK A01 T00920032  RH  066%=      5-min Rain = 0
KHE1 140217Z 12007KT 09/03 A2987 RMK A01 T00910031  RH  066%=      5-min Rain = 0
KHE1 140218Z 12007KT 09/03 A2987 RMK A01 T00890031  RH  067%=      5-min Rain = 0
KHE1 140219Z 12006KT 09/03 A2987 RMK A01 T00870030  RH  067%=      5-min Rain = 0
KHE1 140220Z 12006KT 09/03 A2987 RMK A01 T00860030  RH  068%=      5-min Rain = 0
KHE1 140221Z 12007KT 09/03 A2987 RMK A01 T00860030  RH  068%=      5-min Rain = 0
KHE1 140222Z 12007KT 09/03 A2987 RMK A01 T00860031  RH  068%=      5-min Rain = 0
KHE1 140223Z 12007KT 09/03 A2987 RMK A01 T00860030  RH  068%=      5-min Rain = 0
KHE1 140224Z 12007KT 09/03 A2987 RMK A01 T00860030  RH  068%=      5-min Rain = 0
KHE1 140225Z 12007KT 09/03 A2987 RMK A01 T00860030  RH  068%=      5-min Rain = 0
KHE1 140226Z 12006KT 09/03 A2987 RMK A01 T00860031  RH  068%=      5-min Rain = 0
KHE1 140227Z 12007KT 09/03 A2987 RMK A01 T00870030  RH  068%=      5-min Rain = 0
KHE1 140228Z 12007KT 09/03 A2987 RMK A01 T00850029  RH  068%=      5-min Rain = 0
KHE1 140229Z 12007KT 08/03 A2987 RMK A01 T00830028  RH  069%=      5-min Rain = 0
KHE1 140230Z 12007KT 08/03 A2987 RMK A01 T00800028  RH  069%=      5-min Rain = 0
KHE1 140231Z 12007KT 08/03 A2987 RMK A01 T00780027  RH  070%=      5-min Rain = 0
KHE1 140232Z 12007KT 08/03 A2987 RMK A01 T00760026  RH  071%=      5-min Rain = 0
KHE1 140233Z 12006KT 08/03 A2987 RMK A01 T00760027  RH  071%=      5-min Rain = 0
KHE1 140234Z 11006KT 08/03 A2987 RMK A01 T00760027  RH  071%=      5-min Rain = 0
KHE1 140235Z 11006KT 08/03 A2987 RMK A01 T00770027  RH  071%=      5-min Rain = 0
KHE1 140236Z 11006KT 08/03 A2987 RMK A01 T00790028  RH  071%=      5-min Rain = 0
KHE1 140237Z 11006KT 08/03 A2987 RMK A01 T00810030  RH  070%=      5-min Rain = 0
KHE1 140238Z 11006KT 08/03 A2987 RMK A01 T00840031  RH  069%=      5-min Rain = 0
KHE1 140239Z 11007KT 09/03 A2987 RMK A01 T00870031  RH  068%=      5-min Rain = 0
KHE1 140240Z 11007KT 09/03 A2987 RMK A01 T00890031  RH  067%=      5-min Rain = 0
KHE1 140241Z 11007KT 09/03 A2987 RMK A01 T00900032  RH  067%=      5-min Rain = 0
KHE1 140242Z 11007KT 09/03 A2987 RMK A01 T00920032  RH  066%=      5-min Rain = 0
KHE1 140243Z 11007KT 09/03 A2987 RMK A01 T00920031  RH  066%=      5-min Rain = 0
KHE1 140244Z 11007KT 09/03 A2987 RMK A01 T00920031  RH  066%=      5-min Rain = 0
KHE1 140245Z 11007KT 09/03 A2987 RMK A01 T00900029  RH  065%=      5-min Rain = 0
KHE1 140246Z 11006KT 09/03 A2987 RMK A01 T00860028  RH  067%=      5-min Rain = 0
KHE1 140247Z 11006KT 09/03 A2987 RMK A01 T00850029  RH  068%=      5-min Rain = 0
KHE1 140248Z 11007KT 08/03 A2987 RMK A01 T00840029  RH  068%=      5-min Rain = 0
KHE1 140249Z 11007KT 09/03 A2987 RMK A01 T00850030  RH  068%=      5-min Rain = 0
KHE1 140250Z 11006KT 09/03 A2987 RMK A01 T00860030  RH  068%=      5-min Rain = 0
KHE1 140251Z 11006KT 09/03 A2987 RMK A01 T00860030  RH  068%=      5-min Rain = 0
KHE1 140252Z 12006KT 09/03 A2987 RMK A01 T00860031  RH  068%=      5-min Rain = 0
KHE1 140253Z 12006KT 09/03 A2987 RMK A01 T00880032  RH  068%=      5-min Rain = 0
KHE1 140254Z 12007KT 09/03 A2987 RMK A01 T00900032  RH  067%=      5-min Rain = 0
KHE1 140255Z 12007KT 09/03 A2987 RMK A01 T00900032  RH  067%=      5-min Rain = 0
KHE1 140256Z 12007KT 09/03 A2987 RMK A01 T00900031  RH  067%=      5-min Rain = 0
KHE1 140257Z 12008KT 09/03 A2987 RMK A01 T00890031  RH  067%=      5-min Rain = 0
KHE1 140258Z 12008KT 09/03 A2987 RMK A01 T00890032  RH  067%=      5-min Rain = 0
KHE1 140259Z 12008KT 09/03 A2987 RMK A01 T00900032  RH  067%=      5-min Rain = 0
KHE1 140300Z 12008KT 09/03 A2987 RMK A01 T00900032  RH  067%=      5-min Rain = 0
KHE1 140301Z 11008KT 09/03 A2987 RMK A01 T00910032  RH  067%=      5-min Rain = 0
KHE1 140302Z 11008KT 09/03 A2987 RMK A01 T00900031  RH  067%=      5-min Rain = 0
KHE1 140303Z 11008KT 09/03 A2987 RMK A01 T00880030  RH  067%=      5-min Rain = 0
KHE1 140304Z 11008KT 09/03 A2987 RMK A01 T00870030  RH  068%=      5-min Rain = 0
KHE1 140305Z 11008KT 09/03 A2987 RMK A01 T00860030  RH  068%=      5-min Rain = 0
KHE1 140306Z 11008KT 09/03 A2987 RMK A01 T00860030  RH  068%=      5-min Rain = 0
KHE1 140307Z 11008KT 09/03 A2987 RMK A01 T00850030  RH  068%=      5-min Rain = 0
KHE1 140308Z 11008KT 08/03 A2987 RMK A01 T00840029  RH  068%=      5-min Rain = 0
KHE1 140309Z 11008KT 08/03 A2987 RMK A01 T00810028  RH  069%=      5-min Rain = 0
KHE1 140310Z 12008KT 08/03 A2987 RMK A01 T00780028  RH  071%=      5-min Rain = 0
KHE1 140311Z 12008KT 08/03 A2987 RMK A01 T00770029  RH  071%=      5-min Rain = 0
KHE1 140312Z 12008KT 08/03 A2987 RMK A01 T00790029  RH  071%=      5-min Rain = 0
KHE1 140313Z 12008KT 08/03 A2987 RMK A01 T00790029  RH  070%=      5-min Rain = 0
KHE1 140314Z 12008KT 08/03 A2987 RMK A01 T00790028  RH  070%=      5-min Rain = 0
KHE1 140315Z 12008KT 08/03 A2987 RMK A01 T00780028  RH  070%=      5-min Rain = 0
KHE1 140316Z 12008KT 08/03 A2987 RMK A01 T00800029  RH  071%=      5-min Rain = 0
KHE1 140317Z 12008KT 08/03 A2987 RMK A01 T00830031  RH  070%=      5-min Rain = 0
KHE1 140318Z 12008KT 09/03 A2987 RMK A01 T00850031  RH  069%=      5-min Rain = 0
KHE1 140319Z 12008KT 09/03 A2986 RMK A01 T00850030  RH  068%=      5-min Rain = 0
KHE1 140320Z 12008KT 08/03 A2986 RMK A01 T00840030  RH  069%=      5-min Rain = 0
KHE1 140321Z 12008KT 08/03 A2986 RMK A01 T00820029  RH  069%=      5-min Rain = 0
KHE1 140322Z 12008KT 08/03 A2986 RMK A01 T00820030  RH  070%=      5-min Rain = 0
KHE1 140323Z 12008KT 08/03 A2986 RMK A01 T00810030  RH  070%=      5-min Rain = 0
KHE1 140324Z 12008KT 08/03 A2986 RMK A01 T00810030  RH  070%=      5-min Rain = 0
KHE1 140325Z 12007KT 08/03 A2986 RMK A01 T00800030  RH  070%=      5-min Rain = 0
KHE1 140326Z 12007KT 08/03 A2986 RMK A01 T00800030  RH  071%=      5-min Rain = 0
KHE1 140327Z 12007KT 08/03 A2986 RMK A01 T00790029  RH  071%=      5-min Rain = 0
KHE1 140328Z 13007KT 08/03 A2987 RMK A01 T00790030  RH  071%=      5-min Rain = 0
KHE1 140329Z 13007KT 08/03 A2987 RMK A01 T00790030  RH  071%=      5-min Rain = 0
KHE1 140330Z 13007KT 08/03 A2987 RMK A01 T00800030  RH  071%=      5-min Rain = 0
KHE1 140331Z 13007KT 08/03 A2986 RMK A01 T00810030  RH  070%=      5-min Rain = 0
KHE1 140332Z 13007KT 08/03 A2986 RMK A01 T00810030  RH  070%=      5-min Rain = 0
KHE1 140333Z 13007KT 08/03 A2986 RMK A01 T00820031  RH  070%=      5-min Rain = 0
KHE1 140334Z 13007KT 09/03 A2986 RMK A01 T00850032  RH  069%=      5-min Rain = 0
KHE1 140335Z 12007KT 09/03 A2986 RMK A01 T00860031  RH  069%=      5-min Rain = 0
KHE1 140336Z 12007KT 08/03 A2986 RMK A01 T00840030  RH  069%=      5-min Rain = 0
KHE1 140337Z 11007KT 08/03 A2986 RMK A01 T00820028  RH  069%=      5-min Rain = 0
KHE1 140338Z 11007KT 08/03 A2986 RMK A01 T00780027  RH  070%=      5-min Rain = 0
KHE1 140339Z 11007KT 08/03 A2986 RMK A01 T00750026  RH  071%=      5-min Rain = 0
KHE1 140340Z 11007KT 07/03 A2986 RMK A01 T00730026  RH  072%=      5-min Rain = 0
KHE1 140341Z 11007KT 07/03 A2986 RMK A01 T00730027  RH  073%=      5-min Rain = 0
KHE1 140342Z 11007KT 07/03 A2986 RMK A01 T00730027  RH  073%=      5-min Rain = 0
KHE1 140343Z 12007KT 07/03 A2986 RMK A01 T00720026  RH  073%=      5-min Rain = 0
KHE1 140344Z 12007KT 07/03 A2986 RMK A01 T00720026  RH  073%=      5-min Rain = 0
KHE1 140345Z 13007KT 07/03 A2986 RMK A01 T00730027  RH  073%=      5-min Rain = 0
KHE1 140346Z 13007KT 07/03 A2986 RMK A01 T00730027  RH  073%=      5-min Rain = 0
KHE1 140347Z 13007KT 07/03 A2986 RMK A01 T00740028  RH  072%=      5-min Rain = 0
KHE1 140348Z 13007KT 08/03 A2986 RMK A01 T00750028  RH  072%=      5-min Rain = 0
KHE1 140349Z 14006KT 08/03 A2986 RMK A01 T00750028  RH  072%=      5-min Rain = 0
KHE1 140350Z 13006KT 07/03 A2986 RMK A01 T00740028  RH  072%=      5-min Rain = 0
KHE1 140351Z 13006KT 08/03 A2986 RMK A01 T00750029  RH  072%=      5-min Rain = 0
KHE1 140352Z 12006KT 08/03 A2986 RMK A01 T00770029  RH  072%=      5-min Rain = 0
KHE1 140353Z 12006KT 08/03 A2987 RMK A01 T00760027  RH  071%=      5-min Rain = 0
KHE1 140354Z 12006KT 07/03 A2987 RMK A01 T00720025  RH  072%=      5-min Rain = 0
KHE1 140355Z 12006KT 07/02 A2987 RMK A01 T00680023  RH  073%=      5-min Rain = 0
KHE1 140356Z 12006KT 07/02 A2986 RMK A01 T00650023  RH  074%=      5-min Rain = 0
KHE1 140357Z 12006KT 07/03 A2986 RMK A01 T00650025  RH  076%=      5-min Rain = 0
KHE1 140358Z 12007KT 07/03 A2986 RMK A01 T00650025  RH  076%=      5-min Rain = 0
KHE1 140359Z 12007KT 07/03 A2986 RMK A01 T00660026  RH  076%=      5-min Rain = 0
KHE1 140400Z 12006KT 07/03 A2986 RMK A01 T00670026  RH  075%=      5-min Rain = 0
KHE1 140401Z 12006KT 07/03 A2986 RMK A01 T00680026  RH  075%=      5-min Rain = 0
KHE1 140402Z 12006KT 07/03 A2986 RMK A01 T00690026  RH  074%=      5-min Rain = 0
KHE1 140403Z 12006KT 07/03 A2986 RMK A01 T00700026  RH  074%=      5-min Rain = 0
KHE1 140404Z 12006KT 07/03 A2986 RMK A01 T00690026  RH  074%=      5-min Rain = 0
KHE1 140405Z 12006KT 07/03 A2986 RMK A01 T00690027  RH  074%=      5-min Rain = 0
KHE1 140406Z 11007KT 07/03 A2986 RMK A01 T00700027  RH  074%=      5-min Rain = 0
KHE1 140407Z 11007KT 07/03 A2986 RMK A01 T00680025  RH  074%=      5-min Rain = 0
KHE1 140408Z 11007KT 07/02 A2986 RMK A01 T00660024  RH  075%=      5-min Rain = 0
KHE1 140409Z 11007KT 06/02 A2986 RMK A01 T00640024  RH  076%=      5-min Rain = 0
KHE1 140410Z 10007KT 06/03 A2986 RMK A01 T00630025  RH  076%=      5-min Rain = 0
KHE1 140411Z 10007KT 06/03 A2987 RMK A01 T00630025  RH  076%=      5-min Rain = 0
KHE1 140412Z 10006KT 06/03 A2987 RMK A01 T00630025  RH  076%=      5-min Rain = 0
KHE1 140413Z 10006KT 06/03 A2987 RMK A01 T00630025  RH  076%=      5-min Rain = 0
KHE1 140414Z 10006KT 06/03 A2987 RMK A01 T00630025  RH  076%=      5-min Rain = 0
KHE1 140415Z 10006KT 06/03 A2987 RMK A01 T00630025  RH  076%=      5-min Rain = 0
KHE1 140416Z 10006KT 06/03 A2987 RMK A01 T00640025  RH  076%=      5-min Rain = 0
KHE1 140417Z 10006KT 06/03 A2987 RMK A01 T00640025  RH  076%=      5-min Rain = 0
KHE1 140418Z 10006KT 07/03 A2987 RMK A01 T00650025  RH  076%=      5-min Rain = 0
KHE1 140419Z 10006KT 07/03 A2987 RMK A01 T00650025  RH  076%=      5-min Rain = 0
KHE1 140420Z 10007KT 07/03 A2987 RMK A01 T00660026  RH  075%=      5-min Rain = 0
KHE1 140421Z 10007KT 07/03 A2987 RMK A01 T00670026  RH  075%=      5-min Rain = 0
KHE1 140422Z 10007KT 07/03 A2987 RMK A01 T00670026  RH  075%=      5-min Rain = 0
KHE1 140423Z 10007KT 07/03 A2987 RMK A01 T00670026  RH  075%=      5-min Rain = 0
KHE1 140424Z 10006KT 07/03 A2987 RMK A01 T00670026  RH  075%=      5-min Rain = 0
KHE1 140425Z 10006KT 07/03 A2988 RMK A01 T00670026  RH  075%=      5-min Rain = 0
KHE1 140426Z 10006KT 07/03 A2988 RMK A01 T00680026  RH  075%=      5-min Rain = 0
KHE1 140427Z 10005KT 07/03 A2988 RMK A01 T00690027  RH  075%=      5-min Rain = 0
KHE1 140428Z 10005KT 07/03 A2989 RMK A01 T00700028  RH  074%=      5-min Rain = 0
KHE1 140429Z 10005KT 07/03 A2989 RMK A01 T00720028  RH  074%=      5-min Rain = 0
KHE1 140430Z 11005KT 07/03 A2989 RMK A01 T00740029  RH  073%=      5-min Rain = 0
KHE1 140431Z 11005KT 08/03 A2989 RMK A01 T00750029  RH  073%=      5-min Rain = 0
KHE1 140432Z 11005KT 08/03 A2989 RMK A01 T00760029  RH  072%=      5-min Rain = 0
KHE1 140433Z 11005KT 08/03 A2989 RMK A01 T00760028  RH  072%=      5-min Rain = 0
KHE1 140434Z 11005KT 08/03 A2989 RMK A01 T00760028  RH  072%=      5-min Rain = 0
KHE1 140435Z 11005KT 08/03 A2989 RMK A01 T00750028  RH  072%=      5-min Rain = 0
KHE1 140436Z 11005KT 08/03 A2989 RMK A01 T00750028  RH  072%=      5-min Rain = 0
KHE1 140437Z 10005KT 07/03 A2989 RMK A01 T00740027  RH  072%=      5-min Rain = 0
KHE1 140438Z 10004KT 07/03 A2989 RMK A01 T00730027  RH  072%=      5-min Rain = 0
KHE1 140439Z 10004KT 07/03 A2989 RMK A01 T00730027  RH  073%=      5-min Rain = 0
KHE1 140440Z 09004KT 07/03 A2989 RMK A01 T00720028  RH  073%=      5-min Rain = 0
KHE1 140441Z 08004KT 07/03 A2989 RMK A01 T00720028  RH  073%=      5-min Rain = 0
KHE1 140442Z 08004KT 07/03 A2989 RMK A01 T00730027  RH  073%=      5-min Rain = 0
KHE1 140443Z 08004KT 07/03 A2989 RMK A01 T00720028  RH  073%=      5-min Rain = 0
KHE1 140444Z 09003KT 07/03 A299 RMK A01 T00720028  RH  074%=      5-min Rain = 0
KHE1 140445Z 09003KT 07/03 A299 RMK A01 T00740030  RH  074%=      5-min Rain = 0
KHE1 140446Z 09003KT 08/03 A299 RMK A01 T00750030  RH  073%=      5-min Rain = 0
KHE1 140447Z 09003KT 08/03 A299 RMK A01 T00750029  RH  072%=      5-min Rain = 0
KHE1 140448Z 09002KT 07/03 A299 RMK A01 T00730025  RH  072%=      5-min Rain = 0
KHE1 140449Z 09002KT 07/03 A299 RMK A01 T00690025  RH  073%=      5-min Rain = 0
KHE1 140450Z 09002KT 07/03 A299 RMK A01 T00670025  RH  074%=      5-min Rain = 0
KHE1 140451Z 10003KT 07/02 A299 RMK A01 T00650023  RH  074%=      5-min Rain = 0
KHE1 140452Z 11003KT 06/02 A2989 RMK A01 T00640023  RH  075%=      5-min Rain = 0
KHE1 140453Z 11003KT 06/02 A2989 RMK A01 T00630024  RH  076%=      5-min Rain = 0
KHE1 140454Z 12003KT 06/02 A2989 RMK A01 T00620024  RH  077%=      5-min Rain = 0
KHE1 140455Z 12004KT 06/03 A2989 RMK A01 T00620025  RH  077%=      5-min Rain = 0
KHE1 140456Z 12004KT 06/03 A2989 RMK A01 T00630028  RH  078%=      5-min Rain = 0
KHE1 140457Z 12004KT 07/03 A2989 RMK A01 T00650030  RH  078%=      5-min Rain = 0
KHE1 140458Z 12004KT 07/03 A2989 RMK A01 T00680032  RH  077%=      5-min Rain = 0
KHE1 140459Z 12004KT 07/03 A2989 RMK A01 T00710032  RH  076%=      5-min Rain = 0
KHE1 140500Z 12004KT 07/03 A2989 RMK A01 T00730032  RH  075%=      5-min Rain = 0
KHE1 140501Z 13004KT 08/03 A2989 RMK A01 T00750032  RH  074%=      5-min Rain = 0
KHE1 140502Z 13005KT 08/03 A2989 RMK A01 T00760031  RH  073%=      5-min Rain = 0
KHE1 140503Z 13005KT 08/03 A2989 RMK A01 T00760030  RH  073%=      5-min Rain = 0
KHE1 140504Z 13005KT 08/03 A2989 RMK A01 T00760030  RH  073%=      5-min Rain = 0
KHE1 140505Z 14006KT 08/03 A2989 RMK A01 T00760031  RH  073%=      5-min Rain = 0
KHE1 140506Z 14006KT 08/03 A2989 RMK A01 T00760031  RH  073%=      5-min Rain = 0
KHE1 140507Z 14005KT 08/03 A2989 RMK A01 T00760031  RH  073%=      5-min Rain = 0
KHE1 140508Z 14005KT 08/03 A2989 RMK A01 T00770031  RH  073%=      5-min Rain = 0
KHE1 140509Z 13004KT 08/03 A2989 RMK A01 T00760030  RH  073%=      5-min Rain = 0
KHE1 140510Z 13004KT 08/03 A2989 RMK A01 T00760031  RH  073%=      5-min Rain = 0
KHE1 140511Z 12004KT 08/03 A2989 RMK A01 T00760032  RH  073%=      5-min Rain = 0
KHE1 140512Z 12004KT 08/03 A2989 RMK A01 T00780033  RH  073%=      5-min Rain = 0
KHE1 140513Z 12004KT 08/03 A2989 RMK A01 T00780033  RH  073%=      5-min Rain = 0
KHE1 140514Z 12004KT 08/03 A2989 RMK A01 T00790032  RH  072%=      5-min Rain = 0
KHE1 140515Z 12004KT 08/03 A2989 RMK A01 T00790033  RH  073%=      5-min Rain = 0
KHE1 140516Z 12004KT 08/03 A299 RMK A01 T00780032  RH  072%=      5-min Rain = 0
KHE1 140517Z 12004KT 08/03 A299 RMK A01 T00780032  RH  073%=      5-min Rain = 0
KHE1 140518Z 12003KT 08/03 A299 RMK A01 T00770031  RH  073%=      5-min Rain = 0
KHE1 140519Z 11003KT 08/03 A299 RMK A01 T00760031  RH  073%=      5-min Rain = 0
KHE1 140520Z 11003KT 08/03 A299 RMK A01 T00750030  RH  073%=      5-min Rain = 0
KHE1 140521Z 10003KT 08/03 A299 RMK A01 T00750030  RH  073%=      5-min Rain = 0
KHE1 140522Z 10003KT 08/03 A299 RMK A01 T00750030  RH  073%=      5-min Rain = 0
KHE1 140523Z 09003KT 07/03 A299 RMK A01 T00730028  RH  073%=      5-min Rain = 0
KHE1 140524Z 09004KT 07/03 A299 RMK A01 T00720028  RH  074%=      5-min Rain = 0
KHE1 140525Z 08003KT 07/03 A299 RMK A01 T00700028  RH  074%=      5-min Rain = 0
KHE1 140526Z 07003KT 07/03 A299 RMK A01 T00690027  RH  075%=      5-min Rain = 0
KHE1 140527Z 06003KT 07/03 A299 RMK A01 T00680028  RH  076%=      5-min Rain = 0
KHE1 140528Z 06004KT 07/03 A299 RMK A01 T00680029  RH  076%=      5-min Rain = 0
KHE1 140529Z 05004KT 07/03 A299 RMK A01 T00680029  RH  076%=      5-min Rain = 0
KHE1 140530Z 05004KT 07/03 A299 RMK A01 T00680029  RH  076%=      5-min Rain = 0
KHE1 140531Z 06004KT 07/03 A299 RMK A01 T00660029  RH  077%=      5-min Rain = 0
KHE1 140532Z 06004KT 07/03 A299 RMK A01 T00650029  RH  078%=      5-min Rain = 0
KHE1 140533Z 06004KT 07/03 A299 RMK A01 T00650030  RH  078%=      5-min Rain = 0
KHE1 140534Z 06004KT 07/03 A299 RMK A01 T00650029  RH  078%=      5-min Rain = 0
KHE1 140535Z 07004KT 06/03 A299 RMK A01 T00640030  RH  079%=      5-min Rain = 0
KHE1 140536Z 07004KT 07/03 A299 RMK A01 T00650030  RH  079%=      5-min Rain = 0
KHE1 140537Z 06004KT 07/03 A299 RMK A01 T00660030  RH  078%=      5-min Rain = 0
KHE1 140538Z 06004KT 07/03 A299 RMK A01 T00660030  RH  077%=      5-min Rain = 0
KHE1 140539Z 06004KT 07/03 A299 RMK A01 T00660029  RH  077%=      5-min Rain = 0
KHE1 140540Z 06005KT 07/03 A299 RMK A01 T00650028  RH  078%=      5-min Rain = 0
KHE1 140541Z 06005KT 06/03 A2989 RMK A01 T00630029  RH  078%=      5-min Rain = 0
KHE1 140542Z 06006KT 06/03 A2989 RMK A01 T00630028  RH  079%=      5-min Rain = 0
KHE1 140543Z 06006KT 06/03 A2989 RMK A01 T00620028  RH  079%=      5-min Rain = 0
KHE1 140544Z 06006KT 06/03 A2989 RMK A01 T00610027  RH  079%=      5-min Rain = 0
KHE1 140545Z 06006KT 06/03 A2989 RMK A01 T00600027  RH  080%=      5-min Rain = 0
KHE1 140546Z 06006KT 06/03 A2989 RMK A01 T00590028  RH  081%=      5-min Rain = 0
KHE1 140547Z 06006KT 06/03 A2989 RMK A01 T00590028  RH  081%=      5-min Rain = 0
KHE1 140548Z 06006KT 06/03 A2989 RMK A01 T00580028  RH  081%=      5-min Rain = 0
KHE1 140549Z 06006KT 06/03 A2989 RMK A01 T00570028  RH  081%=      5-min Rain = 0
KHE1 140550Z 06005KT 06/03 A2989 RMK A01 T00570029  RH  082%=      5-min Rain = 0
KHE1 140551Z 07005KT 06/03 A2989 RMK A01 T00570029  RH  082%=      5-min Rain = 0
KHE1 140552Z 07005KT 06/03 A2989 RMK A01 T00570029  RH  082%=      5-min Rain = 0
KHE1 140553Z 07005KT 06/03 A2989 RMK A01 T00580029  RH  082%=      5-min Rain = 0
KHE1 140554Z 08005KT 06/03 A2989 RMK A01 T00580030  RH  082%=      5-min Rain = 0
KHE1 140555Z 08005KT 06/03 A2989 RMK A01 T00580030  RH  082%=      5-min Rain = 0
KHE1 140556Z 08005KT 06/03 A2989 RMK A01 T00590031  RH  082%=      5-min Rain = 0
KHE1 140557Z 08005KT 06/03 A2989 RMK A01 T00600031  RH  082%=      5-min Rain = 0
KHE1 140558Z 08004KT 06/03 A2989 RMK A01 T00610031  RH  081%=      5-min Rain = 0
KHE1 140559Z 08004KT 06/03 A2989 RMK A01 T00620032  RH  081%=      5-min Rain = 0

Page generated in 0.0953 seconds.